GFSNGP_sfc_wetblb_000.txt.gz
Wetbulb
54.47 54.42 54.58 54.17 54.49 55.03 54.54 55.04 52.68 53.86 54.38 57.67 59.25 60.00 62.08 62.83 64.15 66.49 66.89 67.68 68.22 67.85 68.07 69.15 69.31 69.74 69.36 68.86 68.54 68.59 67.54 67.52 67.58 68.53 68.75 68.35 68.66 68.97 68.93 68.60 68.10 68.63 68.05 68.09
53.33 54.59 54.25 52.66 54.27 55.08 55.31 55.23 55.50 55.05 54.55 58.38 59.05 60.30 59.63 60.83 62.72 64.49 66.32 66.99 67.93 68.41 68.48 68.71 68.83 68.78 68.45 68.44 67.82 68.90 68.36 67.52 68.22 68.62 69.05 69.20 68.57 68.66 68.34 67.81 67.60 67.86 67.33 66.87
51.72 54.65 54.11 51.62 54.58 55.26 55.94 57.04 56.17 52.64 56.27 58.59 57.84 58.83 60.05 62.52 63.24 63.71 65.47 67.11 67.33 67.94 68.51 68.78 68.50 67.79 67.18 67.88 68.18 68.41 68.50 68.17 68.17 69.02 68.70 68.85 67.80 67.89 67.54 67.57 67.53 66.71 66.58 66.63
52.54 54.54 47.03 54.76 58.52 57.73 56.32 56.95 57.33 56.89 57.34 57.91 58.87 61.46 63.59 64.38 63.76 63.90 64.98 66.76 67.67 68.21 68.77 68.76 67.78 66.49 68.01 67.20 68.13 68.36 68.33 68.11 68.33 68.53 68.31 68.46 67.54 66.96 67.22 67.36 66.82 66.18 65.96 66.33
51.51 51.20 53.39 54.15 55.79 55.61 55.26 55.33 58.65 57.75 57.57 57.97 60.09 62.81 62.43 63.90 64.25 64.89 66.19 67.86 68.62 69.11 68.81 68.28 67.36 67.27 67.60 67.53 67.47 67.24 67.19 67.66 67.89 68.41 68.12 68.02 67.17 67.24 67.30 66.63 65.55 64.99 65.79 65.97
53.06 48.60 46.88 54.85 57.86 59.93 59.08 52.23 58.35 57.96 57.74 58.02 60.41 55.98 60.42 65.42 64.80 65.88 67.32 68.60 68.65 68.49 67.83 67.38 67.98 67.51 67.49 67.09 67.37 66.67 67.01 67.32 67.49 68.25 68.24 67.38 67.49 67.14 67.15 66.53 65.13 64.81 64.95 65.89
51.68 50.43 52.41 58.31 58.45 59.51 50.77 53.24 59.33 58.85 58.99 59.61 60.14 61.07 64.80 66.23 65.99 66.87 67.36 68.00 68.64 68.09 66.88 67.70 69.08 68.84 67.79 67.27 66.70 67.62 67.72 67.14 67.42 68.71 69.34 68.97 67.78 67.51 66.55 66.26 65.86 65.65 65.37 65.75
52.73 50.59 48.45 59.12 57.40 54.56 60.10 61.41 60.57 61.25 61.41 61.66 63.86 65.11 65.10 66.08 66.39 66.37 66.57 66.81 67.68 67.12 67.20 68.69 69.70 69.48 68.50 68.13 70.42 69.32 68.52 67.87 68.66 69.04 68.71 66.43 68.49 66.87 65.97 65.86 65.03 64.99 64.93 64.08
54.59 54.93 59.99 59.96 59.44 61.30 61.89 61.24 62.38 63.02 63.83 64.23 64.29 64.36 65.08 65.64 66.31 66.40 66.78 66.72 67.12 67.12 68.29 69.14 69.59 69.52 68.22 70.05 70.41 69.54 69.40 68.05 66.94 65.71 67.39 68.24 67.57 66.80 64.16 64.06 62.33 60.48 61.11 61.13
54.55 57.91 57.51 57.93 59.67 61.29 62.14 62.01 62.93 63.33 63.23 64.47 64.60 64.16 64.45 65.55 65.74 65.94 66.40 66.42 66.97 66.71 66.39 66.88 68.13 68.45 69.00 69.63 69.47 68.10 67.09 66.20 66.34 66.98 66.81 67.46 66.31 64.81 63.46 61.77 61.31 61.60 60.71 60.96
55.05 57.09 57.10 58.65 59.64 59.72 60.52 61.57 61.69 62.73 63.09 64.14 64.57 63.62 63.63 63.38 64.01 64.46 65.22 65.39 65.73 66.38 66.34 66.31 67.75 67.38 67.43 67.59 67.06 66.05 65.83 65.49 66.06 65.67 65.49 65.45 66.55 62.52 63.02 57.30 57.43 58.53 61.17 60.99
52.07 55.16 55.70 56.86 57.47 59.32 59.41 60.62 61.21 62.14 62.58 63.62 63.54 62.25 62.24 62.59 64.26 64.64 65.26 65.06 65.46 65.74 65.78 64.90 65.12 65.25 66.38 67.43 67.08 66.84 65.30 64.52 64.09 63.49 63.33 62.59 63.56 60.14 46.36 46.70 44.42 42.94 42.51 48.58
55.01 55.69 56.05 56.80 57.73 59.03 58.80 59.96 60.65 61.47 61.81 61.04 61.87 62.07 62.28 62.99 64.61 60.51 64.91 64.76 64.74 64.44 64.33 64.85 64.67 64.62 65.24 65.87 66.30 65.89 64.88 63.98 63.23 60.25 61.66 63.68 63.95 60.62 52.46 49.09 44.74 42.65 42.57 42.51
55.47 54.40 53.17 54.93 54.15 56.33 56.87 58.90 60.43 61.16 61.49 61.69 61.87 62.59 62.93 63.17 63.14 63.92 63.89 64.70 64.43 64.03 63.93 63.87 63.82 63.22 64.39 64.88 65.24 64.61 63.85 54.08 61.99 63.20 64.04 63.59 62.33 60.78 58.00 55.22 55.00 56.86 46.31 47.37
52.55 53.54 53.63 54.93 55.22 54.92 56.47 57.36 57.79 59.36 60.85 61.21 62.48 62.78 62.43 62.49 62.78 63.75 64.20 63.76 63.91 63.38 63.14 63.08 62.64 62.73 64.88 64.37 63.64 62.66 62.64 63.62 64.06 61.31 58.94 56.51 55.21 52.72 52.79 54.00 54.93 56.00 58.15 51.00
53.84 54.36 54.62 54.41 54.70 55.36 55.47 55.71 56.38 57.60 60.01 60.95 61.97 62.53 62.62 63.52 63.55 64.01 63.97 63.74 62.66 62.26 63.08 63.33 62.37 62.84 63.56 63.89 63.02 60.05 59.51 56.71 57.28 59.55 56.86 53.62 53.37 51.98 52.40 52.01 53.50 54.69 54.83 53.16
52.76 53.09 54.22 54.62 55.14 55.83 55.53 55.59 57.13 58.01 59.12 61.03 62.21 63.11 62.93 63.05 63.47 63.33 63.04 63.33 64.05 64.04 63.52 62.83 62.07 62.83 63.76 62.67 62.14 59.09 59.00 59.17 55.86 57.32 54.48 54.32 53.28 53.16 53.61 52.73 52.60 53.17 50.67 46.98
56.07 56.41 57.22 57.02 56.48 56.55 56.50 56.21 57.30 58.10 58.69 61.73 62.73 62.51 61.52 61.17 61.57 60.89 60.96 62.12 61.93 60.57 60.79 60.83 61.24 62.52 62.58 61.86 61.28 59.60 58.58 57.83 58.55 57.80 56.65 55.93 55.57 54.59 53.30 50.85 51.10 52.49 50.11 47.59
55.03 54.44 55.81 57.56 58.87 58.42 57.66 57.42 58.90 61.22 61.76 61.23 60.67 59.86 59.66 60.25 61.04 60.78 60.05 60.41 59.48 58.42 58.34 59.73 55.49 59.64 61.09 59.33 59.70 59.16 57.29 56.52 56.33 56.84 55.95 50.01 52.95 53.73 53.58 52.78 50.03 52.52 51.76 50.19
54.56 55.87 56.87 57.57 58.37 57.90 58.18 60.51 60.94 59.98 59.74 59.05 59.38 58.29 58.19 58.48 59.13 59.28 58.51 57.68 56.42 56.77 58.08 57.58 58.26 57.15 52.99 52.63 53.13 54.15 53.72 55.63 55.85 55.16 54.53 54.35 53.63 53.47 51.13 46.73 50.64 49.81 49.57 49.78
56.19 57.32 57.78 57.23 57.74 59.75 60.44 60.16 58.78 58.23 59.01 59.22 58.19 56.35 56.63 57.09 57.30 58.15 55.95 53.97 54.09 56.37 56.71 54.79 56.73 55.12 54.08 53.05 52.59 52.53 54.65 55.30 54.43 53.49 51.24 51.93 50.10 51.19 50.44 49.73 49.44 49.09 49.21 49.26
57.73 57.61 57.76 58.52 58.65 58.77 59.27 59.16 58.96 57.64 58.23 57.26 57.04 57.75 57.47 56.38 56.76 56.34 55.95 54.98 54.08 48.20 55.02 55.33 54.78 52.81 52.53 50.54 55.41 54.74 54.24 53.78 52.49 51.77 50.36 50.13 49.38 48.81 48.53 48.29 47.32 47.06 46.72 46.44
56.17 57.70 58.45 58.06 57.85 57.89 57.36 58.50 58.38 57.35 57.52 57.18 56.54 56.83 56.72 56.37 56.06 54.47 52.68 53.37 54.08 51.58 54.85 54.54 49.54 48.97 49.55 52.78 53.35 53.16 52.73 51.71 50.97 50.72 49.41 49.42 48.97 48.57 47.98 47.19 46.90 46.16 45.36 44.88
57.42 57.54 58.12 58.89 59.05 58.32 57.45 58.53 58.38 58.43 58.35 58.12 57.68 57.88 56.69 54.99 55.17 57.07 54.27 50.30 47.81 49.68 53.82 51.05 49.04 47.08 44.50 52.82 52.20 51.41 51.13 51.07 50.26 49.58 48.56 42.59 48.00 47.96 47.64 45.96 45.26 45.70 45.00 42.38
57.02 57.79 58.05 57.49 56.63 55.85 57.34 57.68 57.35 57.17 57.15 57.27 57.40 57.45 56.86 58.43 55.74 54.73 54.82 53.99 47.44 50.59 50.17 45.97 45.93 45.59 49.24 51.42 50.85 50.02 49.68 49.09 49.35 48.59 47.67 47.00 46.79 46.06 46.15 45.54 45.31 45.28 45.05 45.27
55.69 54.82 55.34 56.23 56.10 56.83 57.32 57.40 55.48 56.08 55.69 55.17 55.81 55.75 56.49 56.17 55.53 54.59 54.56 52.41 51.90 48.75 49.23 47.15 47.04 47.59 50.71 50.40 49.95 50.14 48.89 48.11 45.66 45.87 45.75 46.71 46.10 45.87 45.43 45.33 45.25 44.45 44.39 45.39
55.10 51.30 55.42 56.18 57.02 57.20 56.15 55.74 55.86 55.12 54.77 54.40 53.70 56.63 56.35 55.72 54.08 52.59 49.80 52.48 52.12 51.18 51.09 49.50 48.10 45.65 48.41 49.85 48.38 48.35 47.87 47.74 43.34 46.52 45.87 45.85 45.79 45.48 45.40 45.25 45.26 45.45 45.35 45.23

GFSNGP_sfc_wetblb_006.txt.gz
Wetbulb
53.39 53.65 53.86 54.06 53.83 53.88 52.95 54.71 52.24 54.59 55.28 59.05 59.06 61.08 61.91 62.63 63.58 64.40 67.64 69.02 71.68 71.25 72.05 72.51 72.33 71.64 71.67 69.98 70.85 70.78 70.06 70.48 71.22 72.10 71.90 72.01 71.84 71.76 71.39 71.27 70.78 71.15 70.10 69.70
52.22 53.93 53.66 52.18 53.53 54.83 54.47 53.95 53.80 54.75 56.17 59.91 62.45 63.32 61.75 60.92 61.77 63.95 65.47 66.08 69.27 71.97 71.53 73.22 72.48 71.46 70.31 70.18 70.84 72.16 67.63 69.67 71.58 71.64 71.19 70.83 71.48 71.79 71.19 71.26 71.07 70.88 69.42 69.09
50.73 53.53 53.32 50.81 53.50 53.59 54.79 56.23 55.64 54.18 59.02 61.99 60.79 60.76 60.53 62.14 62.45 64.05 65.46 66.64 67.59 71.18 70.67 73.83 72.26 71.64 69.65 70.58 71.19 70.90 70.10 70.54 70.92 71.18 70.72 71.16 71.08 70.96 71.09 71.45 70.96 70.16 69.40 68.60
51.83 54.85 47.25 54.14 58.11 56.68 55.21 56.31 57.37 57.84 59.49 60.83 60.70 61.01 62.23 64.16 64.44 63.37 65.86 66.72 68.11 69.89 72.20 73.50 72.60 71.58 71.61 70.40 70.34 71.01 70.33 70.32 70.54 70.71 70.35 71.09 70.75 70.54 71.31 71.02 70.46 69.27 68.38 68.75
51.78 50.36 53.08 54.97 57.16 57.22 55.43 56.76 59.56 58.66 60.29 61.92 61.23 60.34 63.24 65.27 64.39 64.81 67.49 70.03 70.38 68.97 71.03 73.44 71.93 71.94 71.40 69.02 69.63 69.86 69.46 69.95 70.35 70.51 70.19 70.35 70.17 70.33 70.73 69.71 69.30 68.81 68.67 67.97
53.98 49.13 47.12 56.16 58.82 60.31 59.44 52.81 60.15 59.98 59.99 60.24 60.36 55.68 61.52 66.98 65.64 65.99 67.10 69.90 71.02 72.07 72.77 72.97 72.31 72.11 70.19 68.60 69.32 68.46 69.02 70.06 70.82 70.86 70.81 70.15 70.18 69.87 69.23 71.14 68.52 66.54 66.45 67.58
51.81 50.18 52.17 58.18 59.61 60.00 49.84 50.77 59.21 61.59 60.98 61.26 60.78 62.81 67.45 67.61 66.66 67.54 68.51 69.63 71.33 72.98 72.72 72.70 72.78 71.08 68.27 68.52 68.87 70.06 70.66 71.03 71.17 71.41 71.67 71.57 71.85 71.06 69.71 67.38 66.55 66.84 67.05 66.85
53.62 50.94 48.87 60.64 58.99 55.25 62.56 63.61 62.47 62.01 63.24 63.06 62.80 63.22 63.98 65.22 68.05 68.01 68.98 70.00 71.15 72.58 72.17 72.89 73.01 72.07 69.02 69.37 72.09 74.02 72.71 71.89 72.04 72.27 69.48 67.55 70.99 70.08 67.42 68.70 66.33 65.90 65.85 63.58
54.84 52.97 58.20 62.43 62.06 63.58 63.28 63.98 62.42 62.98 62.55 62.77 61.89 62.00 62.98 64.19 66.53 68.25 68.93 70.02 71.05 71.48 73.00 72.64 72.43 74.12 72.94 73.80 75.12 74.57 74.56 73.51 73.06 73.44 71.63 71.91 69.89 68.02 67.78 66.09 65.36 66.48 63.72 61.04
54.29 55.11 55.15 60.57 60.94 61.77 62.01 61.43 61.35 61.91 61.96 62.29 61.63 62.31 64.25 65.52 67.41 68.74 66.07 69.57 70.34 71.43 71.20 71.35 74.10 73.49 73.57 72.93 73.94 72.61 72.90 73.15 73.09 71.63 71.86 70.70 68.26 68.96 63.63 66.00 64.14 63.17 60.46 62.83
56.74 54.69 59.77 59.55 59.84 60.91 61.05 62.19 61.66 62.15 61.91 61.98 62.99 64.07 65.47 66.13 70.23 65.69 70.09 66.77 66.89 66.07 64.99 63.90 64.41 65.11 66.38 68.46 69.06 70.86 71.41 71.70 71.22 69.20 68.52 67.39 58.58 56.96 62.66 53.63 53.41 59.35 57.40 58.41
52.23 56.95 57.99 57.22 59.19 60.21 59.62 59.78 61.43 61.93 61.40 62.55 63.84 65.66 67.63 69.48 67.00 68.25 67.84 67.89 65.82 67.14 65.74 62.53 64.05 65.86 67.74 67.22 69.76 69.81 68.94 67.95 67.09 66.57 61.45 66.13 60.60 56.50 45.64 45.23 43.07 42.08 43.07 48.94
55.35 57.12 56.68 57.76 59.03 59.54 57.86 58.63 59.23 59.71 61.80 62.20 63.52 65.13 66.99 64.57 68.75 64.17 67.69 66.24 62.68 63.27 63.11 62.76 62.25 67.59 69.59 69.65 68.16 68.88 67.65 66.97 65.65 61.65 64.51 64.20 64.14 62.84 59.96 51.26 45.97 44.36 44.00 44.20
55.93 56.16 54.34 54.86 54.58 57.03 57.86 58.33 58.68 59.05 60.54 61.38 62.57 64.90 65.52 66.48 65.52 66.72 65.70 67.22 66.98 65.88 65.99 65.03 66.82 67.25 68.59 68.03 68.27 67.28 66.07 56.22 63.78 63.85 63.98 63.68 62.41 61.43 60.78 60.30 57.95 56.88 46.14 46.46
53.30 54.21 54.28 55.99 56.17 55.97 56.91 57.07 56.75 56.61 57.71 58.92 62.24 63.97 65.64 61.52 63.48 65.79 67.48 66.21 65.96 66.14 66.46 66.40 66.25 65.98 66.51 65.86 65.62 64.88 63.72 63.06 63.84 63.13 61.55 59.88 60.38 59.25 58.34 57.31 56.56 55.89 55.81 48.27
54.37 55.14 55.63 55.03 55.70 56.68 56.95 56.84 56.16 56.42 57.02 57.66 59.16 62.20 64.16 65.76 61.54 64.07 66.76 66.38 64.84 64.07 65.81 66.02 66.21 66.50 65.48 65.54 65.46 63.42 62.62 57.40 59.11 62.80 59.81 59.73 58.38 57.28 56.43 55.37 54.39 54.41 52.66 50.26
54.03 54.08 55.46 55.21 55.22 55.14 55.66 56.62 56.88 56.92 57.47 57.89 59.11 60.89 63.95 63.53 66.03 63.31 64.55 64.32 63.77 67.19 65.97 65.96 65.73 66.71 65.62 64.80 63.59 62.07 59.89 60.50 56.22 60.90 58.78 57.42 56.52 55.38 55.10 55.00 54.23 52.99 50.76 48.23
56.04 55.61 55.42 55.30 54.75 54.75 54.54 55.19 55.95 57.70 58.29 58.74 59.06 60.17 61.22 62.62 65.61 62.95 64.40 64.92 61.65 63.17 65.24 65.66 65.29 64.67 64.09 63.71 62.92 61.30 58.42 58.88 58.85 59.17 56.97 57.53 56.82 56.96 55.33 54.14 53.48 51.87 50.62 48.59
56.10 55.41 55.59 55.66 55.32 54.85 54.88 54.73 55.26 58.16 60.94 60.13 60.03 62.86 63.78 62.93 64.22 62.10 60.53 58.07 60.07 60.80 62.29 63.55 60.11 61.51 62.98 61.02 59.61 60.90 58.77 58.64 57.32 53.72 53.26 51.09 53.67 54.49 54.42 53.90 53.43 52.72 51.93 49.86
55.35 55.23 55.18 55.21 56.03 55.52 55.80 57.46 57.55 58.74 60.49 61.05 61.29 62.72 62.35 62.19 61.33 59.06 57.77 57.23 59.66 62.51 63.37 60.67 60.89 61.28 62.09 59.37 57.73 57.85 56.21 54.93 54.22 54.07 53.91 53.58 53.36 53.38 52.57 49.08 50.07 51.14 51.11 50.16
54.70 55.15 55.14 55.17 55.97 56.18 57.03 58.45 58.67 59.04 61.08 61.97 61.13 61.03 60.31 60.62 60.57 60.62 59.63 57.28 59.37 58.47 60.24 57.93 60.20 59.56 59.07 58.04 56.87 56.76 55.37 55.21 54.80 54.16 53.59 52.65 52.28 51.50 51.60 51.35 50.40 50.04 49.78 49.22
55.39 54.73 55.03 55.19 55.82 56.36 58.20 60.34 58.75 60.38 60.88 60.99 60.83 60.29 59.03 58.59 59.17 58.71 59.40 57.77 58.13 52.57 57.69 57.68 57.99 53.62 57.30 54.37 55.29 55.53 54.67 53.98 53.70 53.11 52.24 51.76 50.69 50.27 50.30 50.50 49.77 49.37 48.92 48.37
56.01 57.02 56.12 56.66 57.01 57.62 59.56 58.89 59.96 59.74 58.91 59.33 58.13 57.81 57.75 57.61 57.48 56.02 54.79 57.07 57.69 54.13 56.12 52.57 50.70 51.09 51.65 54.26 53.90 54.36 54.11 53.24 52.60 51.54 50.89 50.77 49.92 49.78 49.78 49.74 49.40 48.98 47.97 47.26
56.36 55.36 55.93 56.41 56.94 58.34 57.84 59.17 59.27 59.60 59.52 59.83 58.58 58.87 58.61 56.80 56.32 56.88 54.93 50.85 50.48 52.70 54.97 52.03 49.75 48.94 44.47 51.69 51.85 52.48 52.76 51.83 50.92 50.45 50.07 45.94 49.70 49.65 49.46 49.43 48.56 48.26 47.67 44.84
56.18 55.27 55.58 56.80 56.10 56.99 58.41 58.72 58.03 59.30 58.69 58.36 58.96 58.45 59.48 56.53 56.63 55.96 54.31 54.84 49.40 52.06 53.87 47.68 47.97 47.47 48.77 50.65 51.27 50.88 50.34 50.02 49.44 49.16 49.64 49.57 48.57 48.30 48.68 48.57 48.33 47.10 47.07 46.89
53.99 54.70 53.90 55.37 55.01 56.41 56.05 59.08 55.49 56.40 56.69 57.17 57.84 56.23 54.94 55.01 53.20 56.67 55.01 53.30 54.74 52.09 52.73 50.50 50.25 48.65 49.65 50.59 51.38 50.86 50.34 49.99 48.53 48.21 47.06 47.90 48.78 48.52 48.17 47.85 47.70 47.02 46.73 46.82
55.38 49.94 54.82 55.01 55.76 55.48 55.51 54.73 54.36 54.39 55.06 56.23 54.91 56.54 56.92 56.28 54.72 53.17 51.12 53.94 53.63 52.91 52.77 52.75 50.82 49.54 50.63 50.41 50.77 50.90 50.33 50.03 47.09 48.52 48.12 47.52 47.18 47.56 47.80 47.56 47.54 47.42 47.23 46.76

GFSNGP_sfc_wetblb_009.txt.gz
Wetbulb
49.38 51.45 51.31 52.23 51.72 50.81 47.35 47.02 45.69 47.96 51.82 52.69 55.12 56.50 57.35 58.40 58.41 58.39 60.23 63.17 66.27 66.55 69.23 69.20 69.05 68.05 67.48 67.02 67.57 67.83 67.11 66.22 65.75 65.86 65.56 65.83 65.69 66.05 65.60 65.10 65.56 65.01 64.64 64.30
47.15 51.77 51.23 49.74 52.10 52.80 52.59 51.06 49.37 49.69 51.46 57.01 58.27 58.07 57.73 58.14 57.97 58.00 58.24 59.34 63.62 67.68 67.96 69.01 69.20 67.65 67.23 66.08 65.74 66.43 66.04 65.84 66.86 66.82 66.07 65.75 65.60 65.71 64.98 64.64 65.02 65.09 63.88 63.23
43.14 48.70 49.03 45.97 49.85 50.95 51.92 53.24 52.28 48.02 52.82 57.06 56.42 57.35 57.05 57.01 57.93 57.79 59.04 59.62 59.44 61.39 67.30 69.27 69.58 68.53 66.73 65.57 65.95 65.71 65.19 65.67 66.20 66.58 65.78 65.61 65.91 66.10 65.79 65.41 64.26 62.84 63.87 63.58
43.88 46.79 39.71 48.16 53.92 54.96 53.99 55.09 55.41 55.24 57.07 57.54 57.15 57.39 57.55 57.82 57.66 58.52 59.14 60.21 60.22 62.05 68.00 70.00 69.21 67.44 66.94 67.16 65.29 64.56 64.57 64.97 65.85 65.37 65.44 65.69 65.37 65.23 65.14 64.02 63.12 63.27 63.19 62.83
43.95 42.51 46.17 51.50 53.46 54.00 52.31 51.31 56.47 55.56 57.30 58.31 58.34 59.61 58.79 61.08 60.32 59.88 61.58 62.40 62.89 63.30 68.59 69.73 68.23 67.62 66.88 65.42 64.58 64.99 64.47 65.14 65.94 65.83 65.01 65.28 65.39 65.04 64.73 64.35 63.58 63.93 63.41 62.49
45.22 41.84 41.55 48.91 56.35 58.81 56.91 48.04 57.15 57.12 57.14 58.30 56.32 54.00 55.88 60.86 62.31 62.24 63.26 63.54 63.34 64.25 68.00 68.76 68.32 67.67 65.90 64.50 64.61 64.62 65.19 65.61 66.33 65.84 65.53 65.27 65.41 65.61 64.73 64.13 63.29 62.82 60.58 62.45
44.80 44.65 47.62 55.25 58.41 58.94 47.15 48.58 57.36 57.18 56.33 57.17 55.03 58.02 60.57 62.24 62.03 62.77 62.39 64.12 65.46 65.67 67.80 67.97 68.42 67.25 64.82 64.04 63.76 65.30 65.29 66.20 66.64 66.41 66.19 66.04 66.02 65.30 64.48 63.71 59.36 59.38 60.70 61.58
47.00 44.37 42.78 57.98 57.92 53.15 54.54 56.96 59.19 59.75 58.31 58.26 57.98 58.50 58.79 59.68 61.93 62.53 62.37 64.59 65.64 67.24 67.65 67.85 67.55 66.13 63.53 63.36 65.36 66.07 65.98 66.23 66.82 66.81 67.53 67.41 65.99 65.77 64.33 62.46 61.16 60.62 59.59 59.89
51.68 51.07 55.96 57.35 54.71 57.71 58.24 56.67 57.54 57.54 58.34 58.75 58.30 58.97 59.05 58.57 57.05 61.02 63.44 64.83 66.31 67.53 66.27 65.81 65.85 65.55 61.77 58.11 57.68 63.60 67.16 66.51 67.06 67.50 67.49 64.32 64.46 63.99 62.35 61.47 61.44 60.69 59.02 58.19
51.78 53.54 54.82 56.80 56.72 57.27 57.73 58.53 58.92 59.43 58.40 58.38 56.80 58.89 58.32 59.55 59.69 62.38 64.26 63.62 62.94 61.95 60.09 59.38 60.69 60.23 60.45 60.41 60.58 59.38 61.42 66.27 65.96 66.68 64.92 64.79 63.18 61.75 60.72 59.78 58.24 58.07 56.78 55.68
51.45 54.11 56.19 55.68 56.66 57.56 59.25 59.19 59.64 60.51 59.68 59.23 59.69 60.57 60.59 59.81 62.75 62.96 63.14 63.11 63.61 61.66 61.56 60.35 60.74 60.26 60.38 61.06 60.67 59.30 58.56 60.46 64.73 65.03 63.13 57.54 54.26 54.24 57.96 48.62 50.37 54.21 52.26 52.13
47.56 54.73 53.84 53.99 55.76 57.51 56.11 56.59 57.01 56.70 58.20 60.17 59.84 60.87 63.33 64.30 62.88 61.71 61.46 63.05 62.01 60.21 60.12 60.04 61.04 61.15 60.93 59.83 59.87 58.49 58.63 62.77 62.81 61.81 60.17 57.80 53.28 49.05 45.23 45.55 42.75 42.54 43.26 48.49
52.24 56.39 54.96 56.12 57.58 56.39 55.37 56.17 56.24 55.58 55.99 56.59 58.35 59.50 61.66 63.33 63.44 61.75 61.35 61.48 62.00 61.58 61.52 60.95 60.55 59.86 61.51 61.15 61.16 62.74 62.84 60.60 60.60 57.39 58.51 58.39 54.32 51.20 48.19 46.96 44.96 43.38 43.24 43.82
52.99 53.90 51.59 53.29 51.74 54.66 54.93 56.07 56.57 56.44 55.46 55.77 56.45 57.37 60.61 62.59 62.52 61.17 60.38 61.07 61.72 62.45 61.52 60.77 60.54 62.79 64.17 64.12 63.43 61.45 60.36 56.14 57.42 57.63 58.40 58.01 57.88 57.62 55.95 51.87 50.03 48.83 44.16 45.28
52.85 53.75 52.97 52.65 52.84 53.58 54.81 55.64 54.65 53.82 54.06 54.12 54.80 55.15 61.50 61.63 59.64 60.31 62.41 62.89 62.77 61.36 61.62 61.74 62.77 61.85 62.09 62.43 61.16 60.47 59.54 58.78 58.49 56.67 56.33 56.21 55.36 53.90 53.60 53.07 52.17 52.16 49.01 46.84
53.44 54.22 54.41 53.89 53.61 53.77 53.57 53.52 52.46 52.73 53.69 54.27 54.83 55.21 56.52 61.64 61.01 61.10 61.50 61.29 59.51 60.53 61.72 62.23 60.40 61.66 61.91 61.02 59.93 59.20 56.13 56.35 56.75 56.15 56.68 55.13 53.79 52.65 51.94 51.03 50.38 49.82 48.05 47.61
50.58 49.88 50.54 50.51 51.18 51.67 51.98 52.24 51.89 51.62 52.56 54.22 54.85 55.66 55.92 59.12 59.57 59.97 61.01 61.71 61.54 62.11 60.06 60.77 60.70 62.02 62.44 60.81 59.77 58.18 57.70 56.25 56.97 54.68 53.77 52.72 51.64 50.47 50.52 50.58 50.20 48.53 47.32 44.23
53.16 52.76 52.37 51.71 51.48 51.27 51.49 52.39 52.46 52.24 51.45 52.81 56.10 56.66 60.24 58.70 59.70 60.33 60.04 57.63 56.91 59.33 59.30 59.78 61.37 61.44 60.71 60.34 59.75 58.82 56.68 55.23 55.57 55.91 53.32 52.66 53.13 51.97 51.52 49.11 48.86 47.39 44.37 43.19
54.18 53.47 53.73 53.98 53.19 52.22 52.38 52.60 52.45 53.07 53.59 53.82 54.34 57.15 59.70 59.65 57.63 56.28 57.01 57.15 54.94 55.53 58.04 59.48 60.53 60.51 60.34 58.21 57.98 57.63 56.78 54.90 51.31 49.88 50.44 50.08 50.45 51.38 49.32 50.97 49.71 48.61 47.10 44.60
53.62 53.85 54.09 53.91 54.49 54.25 53.00 53.82 54.06 53.38 54.31 54.72 55.56 59.35 58.68 56.94 55.48 54.69 54.63 54.18 56.02 57.95 59.01 58.60 57.52 58.77 59.09 56.52 57.59 54.40 51.48 51.02 49.82 49.04 49.58 49.76 50.23 46.78 45.85 47.27 47.21 45.81 46.79 46.01
53.21 53.72 54.40 54.55 54.12 54.90 54.34 55.09 54.59 54.99 57.16 56.92 58.67 56.91 57.17 56.60 57.79 58.06 56.31 54.55 54.28 57.47 56.80 56.57 56.80 57.15 57.09 54.79 53.26 51.55 51.55 50.72 50.80 50.53 48.78 47.14 46.90 45.04 45.61 46.16 45.18 45.07 44.66 43.75
53.91 54.74 55.05 54.51 55.09 54.97 55.52 56.76 56.41 53.34 53.24 57.09 56.55 56.47 56.48 55.68 55.73 55.10 55.48 54.15 53.01 54.06 55.14 54.67 52.13 54.06 55.52 56.75 51.05 50.14 52.13 52.13 50.76 48.45 46.98 46.59 44.63 44.24 43.98 44.52 43.90 43.71 43.43 42.51
54.74 55.09 54.69 54.86 54.71 54.35 56.24 56.04 56.07 55.06 53.20 56.15 55.42 55.66 54.64 53.51 53.85 52.10 51.16 52.82 53.65 52.09 51.38 49.73 51.55 52.72 53.17 51.32 48.81 48.38 48.52 50.83 49.90 47.34 45.81 45.34 44.24 43.78 43.42 43.61 43.43 43.48 41.88 41.40
53.92 55.01 55.55 55.86 55.29 55.01 54.31 55.03 55.67 56.59 55.99 56.70 55.75 55.52 54.75 53.69 53.05 53.61 51.24 50.36 50.41 50.93 48.30 47.78 47.76 49.57 48.67 47.93 48.22 46.10 46.45 48.41 46.98 46.51 43.45 44.62 44.01 43.74 43.42 43.00 42.39 42.34 40.49 41.11
53.53 54.89 54.90 54.35 55.15 53.89 54.45 54.80 55.02 55.36 55.00 55.30 54.97 54.75 53.57 53.97 51.76 52.05 53.69 50.50 49.34 50.16 48.02 48.51 48.39 47.60 44.06 44.51 45.23 45.27 45.51 43.54 42.69 42.18 42.03 41.99 41.87 42.30 42.78 42.93 43.08 42.35 41.57 40.39
54.11 53.72 53.46 53.60 53.14 53.94 53.98 54.81 52.70 53.46 53.64 53.55 54.46 53.84 54.11 52.48 51.52 52.41 51.25 51.58 49.58 49.20 47.81 45.13 44.59 43.47 44.68 45.15 45.11 45.68 45.63 42.73 42.78 42.14 41.72 41.01 40.98 41.61 42.12 42.26 41.61 40.48 40.42 40.92
53.25 50.86 52.05 53.04 53.65 54.42 53.88 52.68 52.36 51.93 52.61 54.37 53.20 54.03 53.88 54.07 51.75 50.77 49.59 51.81 51.16 49.66 48.99 47.22 46.75 46.80 45.30 45.54 45.44 45.54 44.71 44.66 43.86 43.48 42.61 41.48 40.79 40.56 40.95 41.68 41.89 41.80 41.18 40.94

GFSNGP_sfc_wetblb_015.txt.gz
Wetbulb
44.93 46.14 45.81 46.11 46.89 46.00 44.35 45.09 44.24 45.62 45.96 49.96 51.19 52.34 54.33 56.83 56.65 57.36 58.76 59.78 61.68 62.88 63.78 64.39 65.39 67.24 70.01 70.23 69.47 68.25 65.93 64.87 63.93 64.77 65.48 64.66 64.71 64.08 63.36 63.00 63.03 62.29 61.92 62.04
41.54 45.32 46.36 45.55 47.20 48.03 47.90 45.57 45.37 44.78 46.97 50.83 54.21 52.54 53.50 55.79 56.76 57.00 57.25 59.98 61.81 62.61 61.89 62.70 65.19 67.16 69.24 69.59 68.92 68.42 66.58 64.93 65.24 65.12 64.35 63.02 63.15 63.82 63.50 62.46 62.97 62.52 62.13 62.18
41.29 43.34 44.44 41.61 45.97 46.56 47.74 49.52 49.17 45.72 48.58 51.83 51.50 53.10 54.30 53.87 55.80 57.54 57.73 59.47 60.25 60.52 60.73 60.78 64.10 67.77 68.13 68.90 69.12 67.66 66.44 65.68 65.57 65.63 65.74 64.55 63.94 63.61 62.83 63.03 62.79 62.70 62.38 62.37
41.89 41.26 37.94 45.35 50.67 50.85 51.30 52.21 53.37 51.56 50.12 53.67 55.00 56.18 54.68 53.95 54.74 54.61 56.05 57.36 59.71 61.49 62.81 63.23 62.70 66.88 67.73 68.10 67.86 67.04 64.84 65.68 66.12 65.43 64.74 64.55 64.30 63.73 63.20 63.41 62.57 62.66 62.38 61.78
39.31 39.32 44.09 48.58 51.77 51.63 49.15 48.63 53.31 52.11 53.12 55.11 55.50 55.47 53.44 55.46 55.09 55.29 55.75 55.52 56.07 57.90 61.05 63.14 65.39 65.74 66.28 65.66 66.50 65.93 64.72 65.03 65.81 65.84 64.29 64.18 63.17 63.60 63.09 63.29 62.58 62.84 61.38 60.57
39.52 37.94 38.30 48.03 52.64 55.78 52.94 44.70 54.21 54.94 53.69 54.13 54.65 52.13 51.39 55.77 56.33 56.94 57.69 58.84 58.65 59.07 61.42 63.69 64.77 65.77 64.88 64.10 65.03 65.10 65.06 64.48 65.30 65.45 64.99 64.00 63.57 63.30 63.41 62.92 62.86 62.12 60.92 60.86
41.21 40.99 43.80 50.95 53.52 55.25 46.52 44.83 52.64 53.95 53.10 53.31 51.45 51.78 54.85 57.22 57.82 57.63 58.21 58.88 60.26 62.51 63.35 64.42 65.26 64.50 62.32 62.64 62.91 63.34 63.88 64.01 64.07 63.83 63.37 63.55 63.42 63.74 63.49 62.03 60.39 60.36 60.31 61.07
42.53 39.36 40.09 53.37 52.85 48.77 50.59 52.70 52.93 53.27 53.95 53.96 53.88 55.03 55.56 56.40 56.20 57.34 58.85 62.10 64.71 63.83 63.18 64.04 63.97 63.64 61.96 61.30 62.53 63.47 63.84 63.03 61.77 63.38 65.07 64.14 63.46 60.97 58.81 60.05 61.28 59.90 59.69 59.76
45.19 44.08 50.13 53.56 51.29 53.16 53.53 51.02 52.99 53.86 54.38 57.07 58.43 57.28 56.95 56.12 56.95 60.47 63.03 63.20 62.61 62.38 61.74 61.48 62.07 62.65 61.12 59.60 60.65 61.21 60.26 59.44 59.89 60.37 62.51 62.19 61.45 57.76 57.38 58.14 60.68 59.42 58.37 56.52
49.48 49.60 51.09 53.53 54.44 55.65 54.61 52.54 53.30 54.51 55.57 55.39 55.73 60.04 60.21 60.32 60.14 61.06 60.69 59.81 60.74 61.05 59.58 57.89 58.55 59.25 59.05 60.21 61.47 61.24 60.14 59.45 59.07 58.85 58.52 59.14 59.97 59.43 59.65 60.30 59.34 58.23 57.07 56.12
49.77 53.08 52.67 53.38 54.50 54.91 55.24 56.30 55.41 55.50 55.35 55.20 55.03 56.17 61.61 61.14 61.74 61.47 60.82 59.59 59.65 58.81 58.35 57.57 58.84 59.55 60.29 59.85 60.92 59.60 58.20 58.35 58.07 59.64 59.95 59.28 52.01 50.96 56.30 52.22 53.26 57.00 55.70 54.27
47.41 51.07 51.10 51.72 55.03 55.19 53.27 53.52 53.32 53.50 53.35 53.61 53.93 53.43 56.08 60.24 62.06 62.00 60.80 60.15 59.25 58.79 59.08 58.64 59.07 59.18 58.96 58.61 59.37 57.19 56.51 56.48 56.22 57.04 57.66 56.86 52.84 48.89 45.64 44.66 42.88 43.17 45.70 48.43
52.08 55.44 52.76 54.41 53.21 54.67 53.11 53.00 53.17 52.10 52.50 51.36 52.13 52.71 53.93 58.64 59.47 58.85 60.27 58.69 59.36 59.41 58.95 57.98 57.80 57.96 58.47 58.19 58.79 56.82 55.31 55.39 55.12 56.20 56.54 55.60 51.95 48.96 47.37 46.36 42.63 40.92 41.31 42.66
53.24 50.72 48.31 50.21 49.81 52.64 52.89 52.92 52.55 51.40 50.92 50.91 50.80 51.17 50.78 52.72 59.39 59.22 59.57 59.38 59.11 58.69 58.93 59.01 58.27 57.69 58.68 58.61 57.69 56.16 56.16 53.94 56.66 57.06 55.98 53.60 51.34 51.06 49.42 47.62 46.17 45.68 42.51 43.41
48.65 49.59 49.93 50.70 49.87 49.60 49.60 50.40 49.47 48.64 48.70 48.83 49.84 49.91 50.28 51.25 52.69 56.11 60.10 60.23 59.64 58.16 57.60 57.61 56.99 57.11 58.30 58.61 58.38 57.97 57.10 56.48 55.74 55.40 55.96 53.55 52.43 50.46 49.20 48.04 46.94 45.84 45.44 44.74
47.07 48.12 48.69 48.08 47.87 48.29 48.66 48.79 47.37 47.30 47.78 48.38 48.67 49.32 50.29 54.07 56.09 56.86 57.86 59.06 57.95 56.78 57.02 57.10 58.13 59.72 60.44 59.66 57.69 56.64 55.23 55.29 55.26 54.71 53.97 53.25 53.23 51.91 50.03 48.73 47.26 45.95 46.02 46.20
46.26 45.76 46.65 46.73 47.31 47.66 47.64 48.42 48.12 47.70 48.18 48.73 48.57 49.14 51.52 54.52 56.87 56.90 56.80 58.33 58.54 56.94 57.66 58.06 59.21 58.51 58.52 58.57 57.61 56.24 54.67 54.52 55.41 54.22 52.55 52.05 52.09 51.58 50.84 49.81 48.19 47.03 46.51 45.25
47.96 47.24 47.35 46.62 47.57 47.74 48.40 49.12 48.74 48.51 48.61 49.72 49.27 48.56 49.84 51.36 53.85 55.73 57.51 54.96 55.48 56.36 56.94 58.06 57.12 56.62 56.46 58.10 57.13 56.54 54.93 53.95 53.64 52.58 52.21 52.58 51.84 51.43 49.90 49.91 48.67 46.56 44.49 44.04
50.74 50.14 50.62 51.56 51.71 50.62 49.58 49.50 49.87 50.15 50.47 50.80 49.83 49.25 49.74 53.36 55.34 54.47 54.60 54.27 54.19 52.97 53.19 55.25 58.08 57.62 56.42 57.16 56.26 54.31 53.71 53.15 52.73 52.18 52.72 51.81 50.54 49.53 49.13 49.20 49.87 48.54 46.60 45.80
51.44 52.48 52.70 52.41 52.77 52.37 52.14 52.52 52.11 50.72 52.01 53.57 53.83 51.90 52.52 54.66 54.09 53.42 52.28 51.60 51.96 53.02 54.19 55.92 54.73 54.55 53.58 55.45 55.40 53.09 52.21 52.41 52.38 51.98 52.95 50.71 49.51 49.11 47.70 48.21 47.88 45.89 44.78 45.41
49.54 51.44 52.17 51.65 51.67 52.79 52.94 52.60 51.93 50.78 52.08 51.50 51.88 51.16 50.32 50.93 51.74 52.18 51.27 50.83 52.38 53.12 55.55 56.42 54.87 54.62 53.33 52.87 50.39 50.08 49.99 50.02 49.69 50.88 49.67 46.82 45.86 44.43 44.02 44.39 46.44 46.04 44.68 43.80
48.20 48.64 49.82 51.22 50.87 50.65 51.88 51.96 51.70 50.76 50.52 49.38 50.07 50.76 51.68 51.91 52.34 51.89 52.27 51.34 53.51 53.49 53.31 52.45 53.03 55.07 53.13 52.29 47.65 47.92 48.00 48.69 47.98 49.00 48.27 47.29 44.96 45.36 44.66 43.48 42.80 43.69 44.18 43.24
47.51 48.19 48.92 49.05 49.58 49.85 50.80 51.16 51.51 50.75 51.67 51.59 51.50 51.23 50.80 51.20 50.21 49.57 49.49 51.73 50.95 50.10 50.62 49.58 50.91 53.21 52.27 46.72 45.59 45.69 44.81 46.98 46.42 47.28 48.46 47.30 46.42 46.27 45.00 44.59 42.07 41.01 41.17 42.04
48.02 48.16 48.41 49.41 49.14 48.90 48.49 49.20 50.08 50.53 50.73 51.06 50.39 50.08 50.23 49.82 49.70 50.20 49.95 50.16 48.74 48.02 47.80 47.46 48.48 49.38 47.24 42.93 43.90 43.21 44.45 44.91 44.72 45.04 45.72 43.86 43.61 43.51 43.40 42.71 40.23 39.70 39.19 39.00
47.95 47.82 47.68 47.32 47.11 47.02 46.76 48.73 48.85 48.97 49.56 49.61 50.11 49.43 48.32 48.94 49.59 48.77 48.62 51.73 48.32 47.23 46.39 47.95 48.99 48.33 42.27 42.38 42.16 41.08 40.55 40.07 39.26 38.91 40.58 41.18 40.69 39.80 39.63 39.86 40.27 39.59 39.03 39.28
47.12 46.57 46.59 47.11 47.26 46.71 46.56 48.03 47.91 46.92 47.66 48.17 49.19 50.58 49.31 46.85 46.88 47.35 47.57 49.38 48.13 46.60 45.83 44.94 44.73 43.81 41.82 41.63 41.42 41.34 40.94 40.79 38.74 38.04 37.90 39.53 39.88 39.77 39.62 39.58 39.32 38.82 39.33 40.29
46.34 44.05 44.44 44.34 44.59 45.34 47.20 47.45 47.69 47.66 46.76 47.54 48.14 49.42 49.95 49.76 49.11 47.60 47.27 46.88 46.29 46.13 45.39 44.69 43.51 43.50 41.85 41.07 41.15 41.27 40.96 40.91 38.83 38.68 38.20 37.79 37.67 38.00 38.10 38.40 38.73 39.60 38.46 37.65

GFSNGP_sfc_wetblb_021.txt.gz
Wetbulb
50.97 51.16 50.05 48.89 47.82 48.34 48.10 49.86 47.90 49.74 50.59 54.90 58.12 59.48 62.36 64.94 64.84 64.10 64.31 65.55 67.23 67.88 70.02 71.54 72.23 73.23 73.30 73.30 74.33 74.82 73.84 72.54 71.20 68.95 69.81 69.19 68.85 67.43 64.24 64.88 65.47 66.77 66.18 66.86
49.02 51.48 49.97 47.97 49.33 49.21 49.17 49.38 49.99 50.86 52.32 57.92 60.18 60.66 59.96 62.06 63.13 63.87 64.80 65.51 66.84 68.15 68.94 69.89 71.15 71.30 72.04 72.81 73.49 74.61 73.05 72.06 71.01 68.98 69.51 69.07 68.44 68.02 66.83 64.62 65.79 66.69 66.03 65.94
45.02 49.77 48.05 45.01 48.81 49.47 50.36 51.73 51.18 49.30 53.95 59.40 57.16 58.12 60.49 63.18 63.59 64.44 65.82 66.66 66.62 67.73 69.42 69.91 70.17 71.02 70.96 72.24 73.92 73.49 72.79 71.85 69.41 69.36 69.26 68.68 67.86 67.61 67.46 66.84 66.93 66.47 66.54 66.89
47.12 46.44 39.10 48.92 53.15 52.45 50.93 52.00 53.36 53.78 56.26 58.23 59.14 61.00 62.41 63.84 64.25 64.73 65.92 66.88 67.00 67.15 68.34 69.74 70.28 70.52 71.94 72.59 73.48 72.93 72.07 70.62 69.78 69.35 68.95 68.98 67.97 67.22 67.86 68.05 66.35 66.83 67.30 68.14
46.25 45.34 47.75 50.22 53.77 50.77 49.40 51.09 55.57 55.25 57.29 59.17 59.56 58.89 60.48 61.02 62.10 64.12 64.86 65.77 66.87 67.60 68.37 68.88 69.90 71.29 71.92 72.46 72.84 72.36 71.30 70.10 69.89 69.43 68.83 68.01 67.11 66.92 68.16 68.05 67.27 67.13 67.88 68.17
46.39 43.48 41.65 50.90 53.98 56.61 56.47 48.96 57.85 57.86 58.96 59.19 59.17 55.36 59.75 60.83 62.06 63.69 65.26 66.58 67.15 68.11 68.89 69.27 69.22 71.20 71.46 71.67 71.90 71.26 71.36 70.51 70.17 69.53 68.78 67.45 67.38 67.47 68.38 68.13 67.68 67.37 67.25 67.95
46.19 44.64 48.62 53.49 55.36 56.81 48.87 51.96 56.92 58.00 59.36 59.07 58.52 59.25 61.00 62.57 63.50 64.74 64.96 65.43 67.41 68.88 69.18 70.01 70.72 70.48 70.49 71.09 70.91 72.07 71.88 70.91 69.78 69.17 68.28 68.30 68.08 68.16 68.06 67.63 67.38 67.48 67.25 67.84
48.68 45.13 44.06 55.47 55.29 52.26 55.62 58.26 58.58 59.26 59.79 58.98 60.39 62.07 63.54 64.52 65.35 66.28 66.96 67.87 68.73 68.18 68.59 69.75 70.65 71.09 70.47 70.47 71.94 71.69 69.99 69.62 68.89 69.02 68.02 67.92 68.08 68.11 68.31 67.82 67.55 67.48 66.44 63.58
48.97 48.96 54.95 55.32 55.53 57.15 58.01 57.98 59.25 61.85 63.19 63.87 62.80 63.30 64.40 64.44 65.18 65.55 66.16 66.68 67.97 68.14 68.37 69.27 70.18 70.39 68.99 66.37 68.73 69.82 70.39 69.06 67.75 67.71 68.18 67.93 67.49 68.02 67.35 67.80 67.35 66.52 62.77 63.21
52.32 53.53 53.43 54.13 55.81 56.40 56.96 56.29 57.36 58.50 59.43 61.37 60.81 63.05 64.07 64.86 65.07 65.30 65.80 66.40 67.65 68.61 68.07 67.54 68.39 67.06 68.34 68.80 69.85 69.68 68.73 68.44 68.24 68.14 67.59 68.03 67.30 67.26 66.30 65.52 65.12 63.22 62.97 62.84
51.26 52.19 53.78 53.48 55.42 56.24 56.26 56.48 56.20 57.12 58.24 60.03 62.30 62.42 63.78 64.49 65.42 65.80 66.12 65.94 65.97 66.38 66.47 65.28 66.54 67.16 67.73 67.48 67.08 67.93 67.94 67.86 67.34 66.18 65.42 62.02 58.31 58.67 62.98 63.25 59.05 62.95 63.23 62.72
49.80 53.87 54.37 53.31 55.09 56.22 54.62 54.57 55.97 55.81 55.86 58.02 59.81 61.78 63.75 63.85 65.02 65.54 65.49 65.67 66.13 65.72 66.08 64.98 64.62 66.26 66.92 66.64 66.84 66.78 65.87 65.40 64.94 64.47 62.59 60.53 58.42 55.77 44.28 44.18 43.60 44.84 46.09 57.04
53.77 55.72 54.81 54.73 54.57 53.64 52.88 53.08 54.19 54.01 54.36 54.09 55.72 58.54 60.04 60.32 62.08 60.90 64.89 64.74 64.54 65.70 65.40 65.77 66.23 66.20 66.11 66.40 67.11 66.07 64.06 63.28 63.01 62.35 61.78 59.52 58.74 59.03 57.09 48.41 42.59 41.27 41.50 42.87
54.46 54.17 50.69 52.59 49.77 52.88 53.41 53.30 53.64 54.07 54.23 53.84 54.63 55.71 56.21 57.30 59.48 61.27 62.01 64.97 65.48 64.55 64.26 64.76 65.09 65.08 65.10 65.54 64.70 64.28 62.75 54.78 62.48 62.48 62.51 60.64 59.72 60.93 60.07 57.87 55.92 53.65 43.82 45.78
51.36 52.96 52.32 53.14 53.88 53.51 53.15 53.63 52.40 52.28 53.40 54.29 54.96 55.48 56.56 56.18 56.84 59.13 62.63 64.12 64.56 65.04 64.79 64.28 64.34 64.39 64.67 63.99 63.71 63.28 63.43 62.92 62.15 61.95 62.63 60.65 61.30 60.05 59.52 58.57 57.09 55.28 53.44 48.27
50.80 51.21 51.16 51.17 51.78 52.75 53.16 53.32 52.11 52.28 53.88 54.81 54.88 55.64 55.79 56.94 57.35 58.46 60.97 63.17 64.23 64.11 63.52 63.88 64.12 65.11 65.18 64.44 64.03 63.88 63.39 59.11 60.77 63.40 61.09 61.33 60.48 59.60 58.51 57.75 56.53 56.13 56.15 56.08
49.57 49.58 51.26 51.55 52.14 52.47 53.20 54.15 54.41 54.46 54.84 55.07 55.47 55.95 56.81 56.50 57.10 57.60 59.36 62.25 63.16 64.36 63.84 64.22 64.05 64.53 64.71 64.56 64.04 64.11 64.27 62.98 59.05 62.49 62.20 61.54 60.83 59.80 59.11 58.14 57.39 57.19 57.49 55.84
53.66 54.19 54.48 54.21 53.84 54.09 54.23 55.22 55.84 56.14 55.70 56.54 57.10 56.99 56.67 56.70 56.65 57.77 60.42 62.27 62.53 62.81 62.46 63.14 63.66 64.11 64.50 64.72 64.43 63.50 62.81 62.55 62.21 62.12 61.75 60.69 60.38 60.22 59.44 58.93 58.22 57.58 57.05 54.23
54.19 53.84 54.49 54.63 55.20 55.42 55.63 55.74 56.09 56.58 56.81 57.68 58.10 57.86 57.86 57.67 58.47 57.77 59.74 61.27 61.14 61.72 60.34 62.18 58.95 61.50 62.36 62.47 63.06 63.85 63.02 62.31 61.84 61.55 61.39 57.16 59.08 60.11 59.36 58.19 57.29 55.87 56.53 56.00
53.11 54.09 54.97 55.15 55.88 55.83 55.77 56.41 57.21 56.17 55.91 56.90 57.93 58.24 57.65 56.09 57.63 59.48 60.53 59.29 60.10 59.99 62.22 62.31 62.55 62.65 63.08 60.83 59.94 62.52 61.97 62.03 61.53 61.03 60.06 59.71 59.95 59.37 58.90 53.39 55.54 54.92 56.75 56.38
52.37 53.25 53.37 54.07 54.75 55.90 56.20 56.70 56.46 56.41 57.41 57.67 57.52 57.59 58.14 58.56 59.11 59.55 58.97 57.84 59.91 60.93 61.64 58.89 61.35 61.65 61.41 60.33 60.34 61.25 60.96 60.76 60.40 60.08 59.54 59.21 58.98 59.01 58.05 56.64 55.24 57.02 56.05 55.97
52.53 52.56 52.90 53.37 53.98 54.78 55.85 56.96 57.87 57.93 58.02 57.92 58.02 58.20 58.34 58.05 58.33 58.59 58.97 58.69 60.40 53.31 59.01 60.29 61.14 57.58 58.30 57.01 58.47 58.03 57.81 58.89 59.70 59.99 59.40 59.13 58.99 58.37 57.63 57.70 57.39 55.97 55.99 55.92
52.96 53.17 53.67 53.98 53.78 54.03 55.69 56.23 57.00 57.45 57.32 56.99 56.54 56.37 56.59 57.45 58.12 56.56 56.02 58.31 60.11 55.02 58.46 58.95 54.99 54.68 51.96 58.85 57.57 56.68 56.16 55.80 55.18 55.26 55.92 56.60 56.82 57.10 57.58 55.61 53.12 53.36 54.80 53.92
53.26 53.79 53.75 54.21 54.40 54.51 54.39 55.45 56.28 56.82 57.20 57.66 57.20 56.80 55.75 55.57 57.12 58.85 59.47 53.94 50.58 52.38 57.35 55.61 54.59 50.95 49.80 55.79 55.83 55.80 55.51 55.14 54.39 53.97 53.43 45.34 53.41 54.64 54.49 51.88 53.66 55.01 52.79 51.13
53.59 53.68 53.50 53.80 53.34 53.65 54.65 55.13 54.81 56.03 55.81 56.43 56.96 57.70 58.16 57.97 56.24 56.92 57.17 58.03 50.67 53.40 58.11 49.17 49.38 48.54 54.65 55.19 54.70 53.95 53.43 53.17 52.84 52.49 51.96 51.50 51.64 51.43 52.39 53.16 53.35 52.83 53.19 54.52
53.76 53.18 53.16 53.57 53.30 53.46 54.43 55.23 54.48 55.66 55.54 55.44 55.90 56.74 57.45 58.52 58.21 56.48 57.55 53.96 57.10 53.91 57.36 57.88 57.01 55.84 55.93 54.97 54.24 53.92 53.64 53.52 52.63 52.93 50.74 51.27 51.12 51.98 52.62 52.99 53.07 52.88 53.00 53.10
52.87 47.08 53.03 53.47 52.68 51.59 52.19 52.82 53.49 54.41 54.19 54.76 54.21 55.52 56.03 56.34 56.34 54.92 52.96 57.20 57.14 56.98 56.82 56.94 56.96 54.38 56.08 55.90 55.25 54.63 54.26 54.24 50.12 53.70 53.19 52.01 51.17 51.04 51.43 51.84 52.06 52.05 52.15 52.17

GFSNGP_sfc_wetblb_024.txt.gz
Wetbulb
52.59 52.67 52.51 51.38 49.87 49.78 49.52 51.09 49.72 52.36 53.44 57.03 59.05 59.74 60.91 61.92 62.38 63.33 67.54 69.20 70.36 70.85 71.99 73.64 74.44 76.23 75.75 75.83 76.25 76.66 76.24 76.10 76.67 77.67 75.49 74.68 75.73 73.43 72.48 71.56 70.33 69.66 68.69 69.09
51.73 52.90 52.45 50.85 51.91 51.62 50.88 50.75 51.09 51.82 52.84 58.39 59.87 60.58 60.63 61.20 61.83 63.22 66.44 69.26 70.40 71.14 72.27 73.31 74.16 74.92 75.53 75.65 75.83 76.52 76.17 76.14 76.96 75.97 74.01 75.22 74.50 73.37 71.74 71.60 70.85 70.26 69.52 69.50
49.01 53.02 52.55 49.50 52.24 52.59 52.89 53.03 51.83 49.74 54.17 57.37 57.37 58.82 60.57 63.46 63.13 63.90 64.93 69.04 70.38 71.29 72.29 73.61 74.41 75.52 75.13 75.67 76.20 76.18 76.62 76.69 76.35 75.76 74.21 73.69 73.71 72.32 72.23 69.93 69.24 70.58 69.81 69.50
49.86 52.10 44.66 53.22 56.89 55.89 53.96 54.44 54.42 53.83 55.21 56.69 57.71 60.30 61.38 65.58 64.58 65.16 65.92 67.30 70.48 71.48 72.19 73.73 74.44 74.98 75.33 75.72 76.15 76.22 76.35 76.22 76.00 75.20 73.73 73.50 73.23 72.08 71.14 69.12 69.77 69.43 69.79 70.06
49.18 49.32 51.60 52.88 54.77 54.44 53.60 53.37 56.41 55.15 56.29 56.94 58.96 61.01 62.43 65.05 66.39 67.19 67.83 69.09 70.54 71.98 72.74 73.78 73.65 74.49 74.74 74.73 75.45 75.77 75.38 75.53 75.22 74.26 73.51 72.58 72.27 71.91 70.95 69.80 69.01 69.38 69.54 69.68
52.24 47.27 45.18 54.18 57.95 59.96 59.43 51.53 57.41 57.23 56.92 57.48 58.45 55.78 59.46 65.50 66.45 66.20 67.28 69.64 70.89 71.48 72.08 72.88 73.53 74.19 74.18 74.35 74.88 74.54 74.95 75.11 75.03 74.55 73.72 72.75 71.57 71.99 71.31 70.31 68.48 68.69 69.10 70.75
50.62 49.58 52.38 56.65 58.00 59.76 50.05 52.89 61.45 59.24 58.82 58.58 58.06 60.66 65.12 65.92 66.68 67.86 68.95 70.40 71.48 71.90 71.67 72.78 73.90 74.55 73.93 74.32 73.98 75.28 75.51 75.28 74.78 74.52 73.20 72.48 71.93 71.54 70.55 69.84 69.07 69.21 69.44 69.48
52.24 49.82 47.78 57.48 58.15 54.29 58.96 63.34 62.74 62.97 63.35 63.20 64.63 65.29 66.42 67.48 68.16 68.74 69.66 70.56 71.84 72.05 72.12 72.65 74.17 74.68 74.18 73.98 75.32 75.85 75.43 74.56 73.86 73.23 71.86 70.77 70.38 69.28 69.33 68.34 67.50 68.22 69.24 69.39
54.07 53.89 57.69 58.32 57.87 60.30 61.02 61.75 64.45 63.89 64.12 65.07 64.79 65.62 66.80 67.33 68.52 68.93 69.75 70.33 71.47 71.54 71.93 73.29 74.35 74.50 73.54 74.23 75.30 74.81 74.39 73.46 71.91 70.76 70.80 70.61 69.19 68.85 67.21 68.07 67.41 67.61 68.60 67.87
54.70 54.92 56.52 57.75 57.87 59.38 60.92 60.61 62.33 65.61 66.15 66.21 65.05 65.61 65.87 66.72 67.36 67.91 68.98 69.54 70.59 71.10 71.40 71.94 73.08 73.76 73.17 73.51 74.03 72.98 72.26 71.09 70.21 69.44 68.29 69.12 68.82 68.69 67.93 67.27 66.49 66.64 67.67 66.20
54.75 55.65 54.93 56.38 57.95 58.50 58.43 60.33 61.18 63.32 64.89 65.53 66.07 66.41 67.17 67.62 68.29 68.60 69.17 70.35 71.32 71.62 71.69 72.06 72.73 72.32 72.87 72.39 72.92 70.95 70.78 70.36 68.51 67.96 67.00 64.22 60.34 58.95 65.03 60.93 59.83 67.29 65.37 65.23
52.92 56.93 56.59 55.51 56.62 57.67 57.06 57.99 59.46 59.78 60.55 62.15 63.46 63.83 65.92 67.24 68.36 68.46 67.89 69.93 69.57 70.29 70.61 70.18 71.15 70.68 70.36 72.30 71.73 70.84 69.92 69.23 68.38 68.49 68.24 68.11 65.58 60.71 44.65 45.49 44.45 46.02 47.44 59.59
56.51 58.73 56.82 55.60 53.60 54.68 53.96 54.83 56.48 57.42 58.23 58.42 60.51 61.80 62.99 64.21 66.88 65.24 69.39 69.51 68.85 68.77 69.72 70.51 69.62 69.76 70.98 70.12 70.61 70.40 69.58 68.77 67.42 66.15 67.06 66.11 65.30 64.19 62.05 52.24 43.36 41.77 41.95 43.55
58.71 56.82 51.90 51.39 50.03 53.11 53.87 54.95 54.66 55.63 56.02 56.64 57.94 59.45 59.97 61.45 63.39 64.68 67.54 68.59 68.38 68.02 68.49 69.82 69.25 68.48 70.29 70.72 69.93 67.82 66.52 57.46 66.01 65.84 64.99 64.86 64.31 64.17 64.20 62.38 60.79 57.54 45.33 48.42
52.23 53.44 52.14 53.05 52.93 52.87 54.85 54.83 54.28 54.94 55.35 55.92 56.52 57.32 58.43 57.89 58.21 60.71 64.76 66.70 68.73 68.77 68.18 68.66 68.50 67.76 69.36 68.37 67.29 66.67 65.86 64.93 65.08 64.65 64.64 63.17 64.80 65.18 64.39 63.36 62.02 59.71 55.38 50.04
51.27 51.47 52.34 52.12 52.47 53.40 54.00 53.84 54.71 53.52 54.94 55.94 56.49 56.74 57.14 58.11 58.53 59.55 61.93 65.45 66.04 66.19 67.90 68.03 68.47 68.18 67.98 67.50 66.60 66.24 65.53 60.59 62.36 64.72 64.47 64.96 64.88 63.67 62.83 62.58 61.76 60.48 59.70 59.54
48.83 48.31 48.96 50.51 52.50 53.38 53.69 55.41 55.83 56.28 55.63 55.93 55.75 56.62 58.20 58.97 59.08 60.47 61.86 63.88 66.16 67.27 68.05 67.96 68.15 68.49 68.57 67.52 67.00 66.92 65.59 64.91 61.07 64.23 63.52 63.42 63.39 62.99 62.57 62.06 61.46 61.20 60.78 59.55
54.45 54.06 54.91 54.28 53.94 54.44 55.70 56.60 57.53 58.08 58.23 59.14 59.62 59.98 59.18 58.46 58.99 60.58 62.69 65.02 65.97 65.08 66.16 66.96 67.62 67.50 67.63 67.60 67.04 66.01 65.41 64.47 63.88 63.88 63.89 63.53 63.35 63.36 62.60 61.93 61.50 60.73 60.32 56.56
56.68 55.33 56.45 56.82 56.57 56.82 57.52 57.82 57.89 58.28 59.52 60.52 60.54 60.20 60.42 60.94 61.55 60.78 64.13 64.47 63.16 62.21 63.81 65.29 60.45 64.97 66.62 64.91 64.95 65.68 65.22 64.90 64.54 65.10 64.13 59.39 62.43 62.62 62.11 61.57 60.94 60.69 59.62 58.79
56.16 56.76 56.32 56.52 57.70 58.10 58.05 58.89 59.34 59.16 60.08 60.54 61.01 60.87 60.45 60.89 62.23 62.50 62.96 61.87 62.61 63.59 65.20 64.46 65.44 65.71 65.55 63.03 61.39 66.52 65.19 64.68 64.05 63.79 63.09 62.62 62.21 61.90 61.84 55.76 60.17 59.20 59.31 58.62
54.82 55.05 55.16 55.89 56.18 57.40 58.95 59.70 59.44 58.96 59.63 60.38 60.15 60.05 60.05 61.27 61.87 61.82 61.06 60.05 62.74 62.58 63.11 60.88 63.92 63.63 63.43 62.35 62.01 64.73 63.84 63.07 62.36 62.22 61.94 61.49 61.73 61.36 61.23 60.84 59.74 59.20 58.33 57.51
55.16 55.04 55.20 55.38 55.26 55.92 57.37 58.45 59.41 59.30 59.30 59.28 59.69 60.45 60.43 60.19 60.86 60.69 61.85 60.64 60.70 53.42 60.63 61.77 61.41 56.66 59.30 56.10 62.59 62.15 62.38 62.91 61.99 61.75 61.42 61.66 61.11 60.86 60.80 59.93 59.34 57.35 57.94 57.68
55.83 56.01 56.01 56.04 56.11 56.43 57.29 57.25 57.26 57.79 57.77 58.37 58.37 58.74 58.57 58.95 59.49 57.68 57.01 60.75 60.47 56.31 60.28 59.45 55.70 54.43 54.24 59.67 60.88 60.57 60.47 59.06 58.84 58.80 59.20 59.77 59.61 59.03 58.57 59.33 58.14 58.20 58.35 57.61
56.79 56.85 57.15 57.37 57.41 56.13 55.70 57.45 57.56 57.84 58.11 57.60 57.68 59.00 58.58 57.11 57.98 60.13 60.23 54.84 53.48 54.55 57.72 57.07 56.41 53.61 50.15 58.82 58.69 57.94 57.03 57.33 57.27 57.26 57.19 46.84 56.34 56.97 57.99 57.92 59.22 59.29 56.56 54.44
57.30 57.54 57.03 56.95 55.69 54.59 55.89 57.66 57.69 57.81 57.13 57.35 57.61 57.90 58.88 58.12 56.98 57.24 58.29 59.58 52.43 54.79 59.47 49.86 51.48 50.35 56.12 57.13 57.30 56.63 56.04 55.31 54.99 54.90 55.14 54.24 53.82 54.82 56.09 56.54 57.24 57.48 57.91 58.21
56.49 55.09 55.86 57.17 56.49 55.39 55.15 55.34 54.24 55.76 55.32 55.17 55.79 56.92 57.66 58.98 59.37 57.95 59.52 56.10 58.71 55.89 57.81 58.88 58.83 57.26 57.82 57.34 57.21 56.65 56.15 55.78 54.56 54.75 53.86 54.53 54.15 53.69 54.19 55.58 56.13 56.25 56.06 56.37
53.72 49.09 54.38 54.64 54.90 54.97 54.73 54.64 54.49 54.45 54.64 55.50 54.96 56.18 56.90 56.97 56.94 55.91 53.46 57.58 57.79 57.97 57.97 57.98 58.12 56.37 57.84 57.49 57.23 57.19 57.07 56.82 52.66 55.87 55.81 55.59 55.48 54.63 53.67 54.15 54.66 54.86 54.80 54.65

GFSNGP_sfc_wetblb_027.txt.gz
Wetbulb
52.79 53.94 54.02 52.09 50.97 50.96 50.73 52.34 51.15 54.04 54.80 58.19 60.14 60.92 62.52 63.19 63.58 63.75 63.97 64.94 69.57 70.87 71.44 75.45 75.91 77.65 77.47 77.91 78.02 77.20 78.30 78.34 79.33 80.53 80.58 80.56 79.40 78.95 77.37 76.53 73.96 73.94 73.59 71.00
52.48 53.79 53.68 52.40 51.67 51.20 51.27 51.86 52.69 53.46 54.19 60.02 61.34 62.34 62.65 62.50 62.64 63.06 63.50 64.15 68.63 71.83 72.54 74.52 76.10 77.34 78.15 77.99 78.48 79.05 78.87 78.83 80.10 80.60 80.16 79.37 78.72 78.81 76.82 74.85 73.91 73.28 72.10 69.92
48.90 52.86 52.66 49.63 52.85 53.08 52.84 53.25 52.48 50.54 55.18 58.58 58.34 60.04 61.96 65.50 63.81 63.44 64.03 64.99 65.04 71.42 73.22 75.53 75.24 77.81 77.95 78.46 79.29 79.02 79.98 79.51 80.36 80.47 79.62 78.11 77.55 77.27 75.53 74.53 73.51 72.40 71.55 71.12
49.74 51.99 44.76 53.34 56.74 55.74 54.33 55.27 55.90 55.47 56.03 57.04 57.94 60.24 62.40 64.16 63.40 64.24 65.02 65.24 66.81 69.10 72.82 74.41 75.23 76.02 78.16 77.70 79.03 79.26 79.14 79.75 80.35 79.55 78.21 76.84 76.48 76.71 76.34 74.55 72.84 71.50 71.53 71.77
48.05 48.44 52.27 53.40 55.55 55.08 54.24 54.47 57.59 56.85 57.88 58.18 58.43 58.38 60.40 62.81 64.24 66.08 66.97 67.54 68.10 65.95 71.83 75.20 75.90 77.81 78.76 78.33 78.27 78.50 78.33 79.18 79.02 78.40 77.77 76.60 74.26 75.01 75.55 74.45 71.99 71.66 71.51 71.66
50.40 46.64 45.06 53.09 59.09 61.39 60.09 52.43 59.11 59.35 59.88 58.37 58.98 54.19 58.36 63.27 62.19 63.82 65.28 66.28 66.91 68.68 70.70 74.01 76.46 76.12 77.63 77.15 77.74 77.74 77.97 78.45 78.72 78.37 76.77 75.48 74.79 74.79 74.97 73.94 72.19 70.47 70.03 71.38
51.00 49.43 51.98 59.26 60.61 60.75 51.64 54.07 63.21 63.66 63.41 62.75 60.36 59.57 62.18 64.34 64.86 67.13 67.33 68.72 70.08 71.96 72.42 76.87 77.41 77.63 77.20 76.93 76.12 77.29 77.38 77.35 77.50 76.50 76.23 76.21 75.04 75.23 72.69 70.85 69.73 70.16 69.02 68.85
50.92 49.04 45.42 60.26 59.92 55.94 60.51 64.51 65.30 65.11 64.58 64.14 65.49 62.67 62.25 67.32 67.99 68.99 69.30 70.32 71.11 72.10 73.87 75.57 77.81 77.95 77.37 77.33 78.92 78.74 77.67 76.16 76.09 76.38 75.22 74.27 73.73 72.57 71.81 70.01 70.22 69.82 68.70 68.59
52.86 53.06 61.64 62.35 62.49 63.11 62.80 62.22 64.79 65.78 65.90 65.55 65.22 65.47 66.92 68.75 68.83 69.87 71.05 71.77 72.32 72.96 74.68 75.82 77.26 78.60 76.83 78.39 78.82 77.95 76.92 76.33 75.99 75.66 74.22 73.60 71.10 69.87 68.91 69.62 69.05 68.80 68.00 69.89
57.62 59.21 59.40 60.42 62.13 63.04 63.72 63.75 65.52 66.56 66.34 66.52 65.59 66.88 67.95 69.34 70.01 70.70 71.76 72.55 73.80 73.16 73.31 75.16 77.26 77.30 77.04 77.33 78.17 76.85 75.40 74.29 72.95 71.77 71.28 71.71 69.88 69.45 69.36 68.35 68.09 68.30 67.66 68.15
57.50 58.45 59.48 60.03 60.72 61.85 62.69 64.96 66.11 67.02 67.50 67.07 66.97 67.12 67.74 68.02 69.19 69.86 70.64 71.86 72.80 72.75 73.10 73.35 74.46 74.60 75.15 75.26 75.65 74.14 72.85 72.09 70.91 70.96 71.09 68.19 62.19 61.96 68.80 66.18 62.18 68.81 67.45 66.81
55.22 59.00 59.66 58.31 60.86 61.81 61.10 61.64 63.15 63.68 63.65 63.71 65.33 66.24 67.73 67.93 69.24 69.99 70.64 71.72 72.03 72.75 72.24 72.92 73.23 73.45 74.39 74.80 74.21 72.88 71.26 70.52 68.93 68.78 68.15 68.45 66.33 61.37 45.07 46.38 44.85 45.83 48.43 60.68
56.67 60.37 58.62 58.01 58.24 58.97 58.30 58.68 59.84 60.47 62.04 61.53 63.11 63.95 65.32 67.40 69.38 66.41 69.92 70.42 71.09 71.58 72.20 71.96 71.96 72.21 73.12 73.75 73.20 72.19 71.14 70.21 69.92 68.57 69.37 68.57 67.68 65.99 62.99 53.18 44.20 42.50 42.80 43.80
58.42 58.40 55.68 56.41 53.64 56.65 57.09 57.07 56.42 58.04 58.29 59.17 59.97 60.55 61.95 63.49 65.85 68.44 68.57 69.54 69.70 70.68 70.97 70.93 69.70 69.98 71.88 72.37 72.65 71.58 70.18 61.01 68.72 67.99 67.81 67.15 66.63 66.17 65.18 63.07 61.86 59.40 46.76 49.41
54.91 57.44 55.69 56.00 55.34 51.12 52.73 56.73 55.54 55.45 57.24 57.54 59.30 59.14 59.59 59.56 61.55 64.44 67.56 69.77 69.93 69.75 70.36 70.34 70.10 70.16 71.38 70.41 68.62 67.43 66.74 66.98 67.41 66.34 65.94 64.43 65.48 65.16 64.90 64.31 63.57 61.18 56.17 51.25
51.31 53.40 52.09 51.50 51.74 54.79 52.66 53.93 54.13 54.32 55.37 56.82 58.25 58.58 58.52 59.06 60.32 61.58 63.94 66.19 66.64 67.24 69.09 69.46 69.29 69.41 70.00 69.36 68.91 68.04 66.79 62.36 63.36 65.83 64.78 64.72 65.02 64.63 63.92 63.62 63.24 61.67 59.94 59.39
47.15 46.62 49.27 50.73 52.73 52.86 53.12 54.72 55.66 56.17 57.84 56.65 57.28 57.67 58.60 58.38 59.58 60.49 61.47 63.81 66.16 66.95 68.43 69.75 68.76 69.57 69.50 69.18 68.31 67.55 66.45 64.70 62.35 65.57 65.01 65.05 64.70 63.92 62.97 62.49 61.89 61.23 61.12 59.73
50.76 50.97 51.22 51.31 52.81 54.68 54.91 56.08 57.29 57.73 58.21 59.61 60.11 59.75 58.99 59.74 60.54 60.51 62.15 64.23 66.24 66.43 67.13 68.15 68.64 69.28 69.11 68.66 68.78 67.37 65.66 64.62 64.60 64.54 64.09 63.75 64.02 64.30 64.05 62.21 62.08 60.79 57.38 56.45
54.45 52.75 53.43 55.06 56.12 56.25 56.41 56.77 57.46 58.54 60.13 61.11 60.78 60.61 60.97 60.78 60.98 61.77 63.33 64.74 63.42 62.77 64.27 66.85 62.97 65.78 67.35 66.03 65.43 66.59 65.20 65.18 63.90 64.11 61.32 59.38 63.12 63.36 62.82 62.69 61.87 61.25 58.60 57.87
55.77 56.57 57.18 56.92 57.79 57.57 57.07 58.97 58.92 59.04 60.27 60.93 61.02 60.86 61.19 61.89 62.79 62.86 63.88 63.11 64.40 65.37 65.97 65.80 66.10 66.10 66.30 64.72 63.18 64.66 62.93 63.32 63.16 62.83 61.83 62.62 63.33 62.44 63.04 55.90 60.22 60.43 60.04 59.75
55.99 56.40 56.70 55.83 56.55 58.09 58.41 58.92 58.37 58.45 59.52 60.69 60.28 59.86 60.74 61.16 62.74 61.02 61.00 60.22 62.56 64.25 64.73 61.83 63.63 63.78 63.88 63.06 62.26 63.57 63.55 61.78 62.25 61.68 61.68 61.73 61.42 61.59 60.77 60.94 60.12 60.39 60.30 59.25
55.42 55.03 55.25 56.21 56.68 56.05 57.22 58.53 58.95 59.36 59.25 59.85 60.31 60.96 60.85 60.86 61.70 62.02 62.63 60.96 62.31 54.53 61.84 61.21 61.04 57.52 60.39 57.39 62.09 62.08 62.14 61.39 60.97 60.79 60.93 61.61 60.52 60.82 60.68 59.69 59.14 60.53 58.75 59.52
55.90 56.39 56.62 56.22 56.20 56.90 57.36 57.59 57.54 57.91 57.74 58.51 59.07 59.69 59.75 59.11 58.77 58.20 56.93 61.08 60.56 57.39 60.39 58.81 55.26 56.62 56.04 59.62 60.50 61.41 60.41 59.86 59.14 59.23 60.14 60.63 59.58 59.55 59.66 59.40 60.66 58.88 58.15 59.31
56.08 56.59 57.00 57.40 57.47 56.82 56.41 57.00 57.69 57.92 57.98 58.20 58.25 58.98 58.88 57.58 58.34 59.20 60.07 55.41 54.06 55.12 58.09 57.84 56.75 54.80 51.54 57.73 58.92 58.56 57.64 57.56 57.95 58.20 58.35 49.91 58.16 57.73 58.45 59.73 58.77 58.50 59.17 55.74
57.43 56.85 57.19 56.90 56.97 54.68 56.99 58.00 57.51 57.83 57.74 58.27 58.41 58.95 59.58 58.30 57.17 57.28 58.32 60.09 53.63 55.71 58.78 51.58 53.06 52.97 57.00 57.37 58.43 58.03 57.73 56.78 55.99 55.99 55.70 56.06 55.51 54.94 55.58 57.12 57.53 59.15 59.32 59.67
55.77 55.48 55.82 57.42 56.04 55.75 55.59 55.90 54.86 55.34 56.20 56.04 56.51 57.32 57.81 58.46 57.87 58.30 59.19 56.40 58.44 56.95 57.82 58.84 59.04 58.23 58.70 58.38 58.33 58.70 57.79 57.49 56.07 55.74 54.68 55.41 55.72 55.36 54.90 54.85 55.66 57.03 57.48 57.64
54.37 50.03 54.63 54.10 54.49 54.73 54.73 54.72 54.23 54.16 55.04 55.78 55.09 56.47 56.81 56.70 56.47 56.31 53.61 57.09 57.36 57.55 57.73 58.22 58.39 56.45 57.74 57.75 57.94 57.91 57.91 57.96 54.34 57.24 56.95 56.53 56.61 56.57 56.28 55.34 55.25 55.98 56.40 56.44

GFSNGP_sfc_wetblb_030.txt.gz
Wetbulb
52.35 51.98 53.02 52.65 52.18 51.68 51.10 52.12 49.98 51.91 55.13 57.22 59.59 62.16 63.07 67.56 66.42 67.05 68.65 69.25 70.91 70.50 73.61 75.91 74.01 73.80 73.81 73.98 74.44 75.54 76.17 76.67 77.58 78.83 78.62 78.69 78.20 78.26 78.12 78.11 77.01 75.39 73.73 73.08
50.46 52.08 52.01 51.42 52.92 52.98 52.95 52.45 52.38 53.12 52.95 58.83 61.34 62.72 64.46 62.15 63.03 65.70 67.03 67.22 70.77 73.02 74.40 75.56 76.19 75.09 74.18 74.59 74.59 75.46 75.09 76.08 77.12 78.02 78.67 78.57 78.50 78.24 77.82 77.50 76.40 74.93 72.99 71.97
48.14 51.90 51.41 48.68 52.82 53.41 53.02 54.05 53.09 50.88 55.29 59.44 59.12 60.47 63.67 65.16 63.19 66.25 66.04 66.46 69.34 72.90 73.63 75.26 76.79 76.72 75.07 75.00 76.31 75.09 75.84 76.08 76.85 78.10 78.42 78.48 78.53 78.06 77.37 76.76 75.70 73.64 72.45 71.51
49.05 51.44 44.30 52.58 56.06 55.48 54.47 54.44 54.19 54.77 56.35 58.13 59.38 61.38 62.09 65.18 66.61 66.95 67.65 67.32 69.77 67.78 72.97 75.28 75.62 75.85 78.11 76.75 76.82 76.25 76.83 76.83 77.79 78.44 78.47 78.59 78.13 77.52 77.25 76.43 74.29 72.30 71.71 70.87
47.80 47.27 50.17 52.43 54.78 54.40 53.62 54.76 57.25 56.35 57.79 58.04 58.50 59.18 60.01 62.41 63.47 65.69 67.05 69.52 70.62 67.64 66.88 74.19 74.47 76.22 76.71 77.48 76.58 77.04 76.39 78.51 78.59 78.88 78.47 78.11 77.15 76.86 76.28 75.41 72.94 71.68 71.19 70.67
49.65 45.65 43.78 53.13 55.57 58.18 57.86 52.15 59.59 58.88 59.44 58.71 60.87 55.40 57.61 63.28 63.01 63.25 64.51 65.37 68.95 69.45 68.22 69.75 74.76 75.96 76.56 76.50 77.10 76.01 77.74 78.33 79.50 79.36 78.53 77.43 77.03 76.46 76.94 76.06 72.97 71.06 69.96 70.45
48.06 47.25 49.73 55.80 57.50 60.63 51.81 55.12 63.58 63.06 62.59 61.94 61.00 64.03 67.69 67.25 65.28 63.90 64.96 66.09 67.94 70.13 71.86 77.58 75.51 76.01 76.10 76.70 76.55 77.61 78.91 79.29 79.34 79.01 78.41 78.17 76.48 75.71 74.95 74.24 73.59 71.49 69.83 69.47
49.35 48.11 45.66 59.42 59.84 55.39 61.99 65.11 64.91 64.99 64.77 64.03 65.26 65.87 66.28 67.78 67.99 68.33 71.01 70.97 71.06 74.82 76.19 78.15 77.22 78.22 76.93 76.87 78.65 79.00 78.51 78.50 78.23 78.27 76.32 76.36 74.43 73.55 72.82 71.55 70.95 69.77 68.52 68.32
51.63 52.24 59.97 59.71 62.99 64.38 64.12 63.67 64.66 65.08 64.95 65.05 64.33 64.64 65.21 68.76 69.86 68.98 70.11 72.25 73.07 75.30 78.25 78.83 80.66 78.29 76.79 78.77 78.60 78.21 77.45 76.96 76.30 76.10 75.37 74.31 72.66 72.60 69.69 70.11 68.26 67.85 67.64 66.96
52.95 55.74 60.31 61.22 62.23 63.92 64.53 64.58 65.61 66.40 66.10 65.57 64.92 65.40 66.79 68.93 69.58 70.36 71.99 73.34 74.86 75.24 75.95 76.85 78.38 78.75 78.41 77.80 77.38 76.52 75.86 75.65 75.40 73.76 72.30 71.70 70.65 70.62 69.06 68.03 68.24 68.54 68.22 68.73
53.75 61.24 60.80 61.35 62.50 63.30 64.31 66.04 66.04 67.61 67.95 68.28 68.43 68.43 69.23 69.83 71.33 71.69 73.41 74.49 75.10 75.51 75.43 76.53 77.39 77.07 77.41 77.07 76.70 75.41 74.75 72.77 71.52 70.76 69.24 62.67 57.59 56.22 67.73 60.82 61.80 68.80 68.79 69.28
52.93 52.91 54.14 60.36 62.17 63.85 63.12 63.57 64.88 65.31 65.55 66.98 68.04 67.68 68.38 68.50 70.32 70.81 71.72 73.32 73.21 72.52 71.77 73.19 74.92 74.58 74.70 75.98 75.64 73.56 71.18 71.04 69.46 68.10 66.27 63.30 61.92 57.92 45.96 46.40 44.95 45.43 48.79 61.70
52.08 55.40 53.78 59.63 59.79 60.66 59.63 60.98 62.72 62.66 63.34 63.22 65.82 67.43 66.86 67.71 66.65 64.73 68.83 70.08 71.20 71.51 71.94 72.66 73.23 74.11 75.27 75.21 73.96 71.73 69.83 69.86 69.37 68.35 68.55 67.07 65.49 63.17 58.42 50.99 44.97 43.23 43.90 47.62
55.56 55.48 52.66 53.13 54.42 57.80 57.61 58.19 58.05 59.32 60.18 60.82 61.81 64.35 66.58 66.36 68.54 68.37 68.83 70.31 70.84 70.35 70.01 71.16 71.49 71.89 73.05 72.74 73.98 72.42 71.05 61.86 69.12 69.11 68.82 68.72 67.18 65.53 62.07 59.65 59.58 57.12 46.42 48.07
55.26 55.05 53.54 54.80 55.69 55.51 56.94 57.25 56.57 56.90 57.65 58.02 59.80 59.63 61.42 63.32 65.27 67.40 69.58 69.63 70.26 70.89 70.90 70.91 70.48 70.45 72.40 72.55 71.32 70.72 70.38 69.66 68.37 68.35 67.79 66.34 66.93 65.97 64.39 63.59 61.74 57.21 53.85 50.24
52.87 54.26 54.24 54.08 55.32 55.57 55.51 54.02 53.95 56.35 56.42 56.47 58.16 58.24 59.30 61.38 62.01 64.24 67.05 68.97 68.26 68.56 69.75 69.20 70.11 70.81 70.46 70.13 69.40 68.70 67.78 63.02 65.43 66.51 65.20 65.72 65.29 64.55 64.50 64.02 61.40 58.79 57.90 56.11
50.64 51.24 53.48 52.77 52.97 54.15 53.62 54.05 53.34 52.73 56.79 58.09 58.42 59.45 59.96 59.41 60.97 62.27 64.27 66.63 68.58 68.57 69.35 69.78 69.79 70.62 70.72 70.55 70.63 67.27 65.19 64.71 61.00 65.41 64.85 64.55 64.88 64.88 64.56 63.25 62.13 61.25 60.76 58.51
50.27 51.62 52.94 54.02 54.37 54.22 55.55 55.77 55.97 53.92 56.38 57.78 59.80 59.72 60.21 60.81 60.89 61.23 63.35 65.72 66.11 66.49 67.57 67.89 68.44 68.53 68.43 69.67 68.67 66.75 65.23 63.67 64.55 64.48 64.74 65.67 65.56 65.75 65.11 63.04 62.89 61.86 60.48 55.97
53.79 53.62 54.65 54.42 54.95 55.94 56.11 56.47 56.76 58.16 58.76 60.04 60.02 59.72 60.41 60.90 61.54 63.28 63.86 63.31 64.11 63.32 65.02 65.72 63.17 64.68 68.18 63.39 63.06 64.27 64.90 63.87 63.66 63.92 63.66 59.86 62.08 59.92 63.05 60.87 57.80 60.22 59.55 57.67
55.50 55.92 56.15 56.85 57.87 57.77 57.39 57.80 57.87 58.16 58.88 59.24 60.18 59.95 60.73 62.25 62.36 62.59 64.26 62.25 62.60 63.56 66.34 65.55 65.52 66.31 67.27 65.07 63.86 65.11 64.36 63.96 63.86 63.64 61.34 62.61 62.74 59.89 61.60 56.01 60.11 60.35 58.80 58.45
54.72 55.56 56.75 56.25 56.37 56.88 57.67 58.39 58.08 57.24 58.85 59.69 59.57 60.27 59.88 60.84 61.71 63.05 62.29 59.88 63.76 64.17 64.69 62.29 60.14 59.99 63.55 61.54 62.06 62.84 63.59 60.15 62.82 62.02 61.65 60.37 59.86 60.53 61.79 61.94 61.38 60.69 57.41 58.54
55.35 55.42 55.59 55.89 55.86 56.31 57.20 57.09 57.17 57.24 57.76 57.94 58.99 60.14 60.32 60.94 59.46 59.53 62.38 61.23 60.94 55.19 59.40 59.92 57.22 56.31 56.99 57.17 60.35 61.20 61.34 60.95 60.68 61.34 59.51 60.66 61.50 60.76 61.24 61.40 58.69 60.71 58.92 58.76
55.58 57.01 55.81 56.31 56.11 56.57 58.09 57.97 57.62 57.87 56.96 57.25 59.65 57.63 56.64 56.98 57.81 58.42 56.86 60.38 59.53 55.50 57.32 55.57 55.54 54.93 54.03 58.20 59.50 59.83 59.55 59.29 59.20 59.99 60.49 61.51 61.21 60.48 60.58 60.53 60.18 58.48 57.52 60.36
55.41 55.57 56.75 53.64 57.47 58.45 57.59 57.79 57.41 58.23 59.00 58.51 58.33 59.77 60.17 57.34 58.40 59.71 59.47 54.85 54.83 55.20 57.87 56.87 55.81 54.04 51.43 56.69 58.08 57.84 57.13 57.09 57.39 57.85 57.89 51.10 58.88 58.89 60.15 60.14 59.77 59.81 60.42 57.49
54.17 57.99 55.30 53.69 56.19 54.65 56.95 58.00 57.96 56.69 57.74 58.60 59.65 60.16 61.55 59.01 57.28 57.43 59.37 59.12 53.23 55.21 57.88 52.73 52.63 53.03 56.23 56.64 56.84 57.26 57.09 56.59 55.92 55.51 55.50 55.39 55.55 55.80 55.79 56.06 56.88 59.21 59.82 59.62
55.51 54.73 55.03 57.58 55.34 54.78 55.01 55.03 54.10 54.85 55.69 55.34 55.59 56.57 57.39 56.99 57.32 57.97 60.68 56.84 58.50 56.71 56.50 56.62 57.52 56.97 58.10 57.53 57.23 57.58 57.42 56.58 56.11 55.60 54.88 55.01 54.85 55.34 55.20 55.12 54.84 55.53 56.84 58.02
54.85 49.87 54.13 53.39 53.39 53.81 53.27 53.65 53.20 52.92 53.71 54.35 53.56 54.82 56.23 57.00 56.92 56.38 53.79 57.54 55.44 55.38 57.60 56.77 55.09 55.07 55.78 56.45 57.55 58.19 56.91 56.21 51.34 55.49 57.49 57.24 57.08 56.36 56.32 56.48 56.02 55.71 55.88 56.59

GFSNGP_sfc_wetblb_033.txt.gz
Wetbulb
48.10 49.60 50.08 49.22 49.61 49.24 46.89 46.69 43.12 44.34 45.49 48.61 51.78 57.46 59.07 59.36 58.94 60.15 62.23 63.40 62.25 65.91 67.06 68.08 68.13 69.31 70.83 71.84 72.45 74.93 75.19 75.58 75.52 76.20 76.70 76.66 76.37 76.14 74.74 75.13 74.67 72.32 71.17 71.12
46.39 49.78 49.27 48.01 49.80 49.95 49.42 49.06 48.07 48.03 47.68 51.26 52.83 59.91 59.53 60.51 60.19 59.87 62.03 64.42 64.51 64.29 67.41 67.97 68.02 68.19 69.64 70.79 71.69 72.49 74.04 74.76 75.49 75.44 76.24 76.08 75.99 75.77 75.47 74.56 75.17 73.19 71.22 70.68
41.92 47.83 47.14 44.30 47.88 48.96 50.35 51.22 50.07 46.56 48.71 51.88 52.09 54.60 57.74 60.08 59.51 59.73 60.32 62.84 64.70 65.75 66.21 67.55 69.63 69.67 69.27 70.03 71.42 71.89 71.81 73.69 74.53 75.06 75.47 75.74 75.94 75.47 75.35 74.69 75.20 73.38 71.74 70.61
41.28 44.73 39.25 46.56 51.66 52.12 51.03 52.49 52.11 51.09 51.67 53.29 53.42 55.71 58.40 60.24 60.07 60.25 61.24 62.21 62.80 68.36 67.43 68.05 71.67 70.95 71.01 71.02 70.92 71.38 71.89 72.48 74.06 74.42 75.34 75.94 75.74 75.38 75.33 75.32 74.02 72.66 71.20 70.32
41.27 41.29 43.68 49.34 51.30 50.87 48.39 49.22 53.99 52.48 52.99 53.94 54.13 53.53 52.64 57.32 59.31 57.12 59.98 60.96 63.45 63.98 68.66 70.13 71.16 72.63 71.30 70.98 71.60 70.87 71.43 72.01 73.65 74.51 74.98 75.76 75.45 75.53 75.42 74.76 73.72 71.83 70.19 69.10
40.99 38.92 38.35 46.38 53.25 55.35 53.83 45.95 57.66 56.38 54.39 53.25 52.85 47.52 50.37 59.84 61.09 59.10 60.27 59.82 61.76 63.59 63.42 69.03 68.82 73.47 72.05 71.43 72.09 71.06 71.47 72.94 73.85 74.72 75.37 75.73 75.89 75.29 74.56 73.69 72.26 70.74 69.59 69.09
42.23 39.81 43.38 51.61 53.97 54.87 46.33 47.62 59.99 60.22 59.43 59.25 56.73 58.70 60.69 61.32 62.06 61.00 59.51 60.36 59.91 60.86 62.11 63.56 68.72 72.56 72.95 72.47 71.54 73.64 73.93 75.33 75.67 76.18 76.45 76.37 75.37 74.89 74.41 72.08 70.81 69.57 68.68 68.58
43.05 40.65 39.55 57.84 54.92 53.17 57.38 60.21 61.02 60.92 60.36 59.37 59.34 60.42 60.52 64.53 64.35 64.71 66.02 66.80 66.03 62.93 64.65 66.45 68.63 72.23 71.68 72.63 73.62 73.77 75.42 76.34 76.28 76.38 76.25 74.97 73.58 72.99 72.59 71.46 69.73 68.31 67.22 66.14
46.41 46.31 55.86 58.04 58.18 59.16 59.88 60.62 60.28 60.01 60.25 60.52 59.60 58.65 63.72 64.68 65.38 64.74 64.95 65.71 67.57 71.25 73.63 74.50 73.25 72.27 72.24 74.12 75.36 75.64 75.88 75.54 75.59 74.63 74.29 72.73 71.31 70.21 69.40 68.81 67.93 66.01 66.23 65.50
48.71 50.76 52.38 56.56 57.82 58.83 61.16 61.25 64.83 65.26 65.62 65.80 65.30 66.51 66.38 67.35 67.05 68.56 69.50 70.32 71.88 72.56 72.50 73.00 74.43 75.47 75.35 75.40 75.62 75.25 73.97 73.23 72.19 71.80 71.02 70.86 69.65 69.24 68.47 67.67 67.17 66.63 66.49 65.58
48.47 51.07 54.05 57.20 54.08 58.44 61.52 65.26 64.83 65.79 66.14 66.00 65.80 65.82 66.45 66.59 67.92 69.59 70.41 71.64 71.97 72.00 72.71 73.27 74.22 74.00 74.43 74.70 74.40 73.16 72.60 70.68 69.51 68.09 63.55 58.63 55.20 61.28 65.39 59.74 62.75 67.25 67.04 66.85
46.06 51.66 53.15 53.40 53.70 55.39 61.65 62.37 62.52 62.97 64.01 65.44 65.88 65.64 65.82 65.53 67.10 68.50 68.70 69.52 70.25 71.37 71.97 72.42 73.32 73.41 73.44 73.07 71.83 70.41 68.84 68.59 65.68 64.32 62.90 60.39 58.05 53.21 45.86 46.59 45.44 46.61 50.72 57.77
51.76 54.44 53.55 54.32 54.33 55.02 55.05 59.99 61.36 61.67 62.25 62.28 64.65 64.68 64.73 65.12 65.74 64.13 66.65 67.06 67.26 68.16 68.90 69.10 69.06 68.32 71.52 70.78 69.46 69.37 68.27 66.70 65.43 63.68 63.64 61.77 59.80 57.95 53.85 50.47 45.68 43.66 44.47 46.73
55.78 55.21 51.76 52.87 51.93 54.40 54.48 56.33 56.34 56.73 56.53 56.74 59.89 61.93 63.38 63.75 64.96 66.07 66.12 67.20 67.14 67.08 67.66 69.00 69.18 68.95 69.68 69.55 68.98 68.05 67.49 61.98 67.35 65.90 65.26 63.64 61.15 59.03 57.13 56.06 54.60 52.14 44.65 44.83
53.61 53.86 52.89 53.93 54.76 54.34 54.42 55.88 54.97 53.52 54.96 54.99 55.86 57.10 57.93 57.68 59.77 62.46 66.06 67.30 67.25 67.16 66.99 67.59 67.93 67.65 68.84 69.27 69.21 67.87 67.46 67.35 66.95 66.47 65.87 63.56 63.27 59.82 58.69 58.35 54.07 49.61 47.77 46.34
52.50 52.96 54.01 53.48 53.95 54.60 54.95 53.29 53.49 54.48 55.23 54.56 55.11 56.07 56.63 57.94 59.41 61.42 64.39 65.51 64.56 64.59 66.26 66.77 65.58 66.08 66.66 66.43 66.42 64.18 63.58 62.96 63.70 65.04 64.51 64.46 62.92 60.20 59.56 57.11 53.29 51.69 50.76 49.27
50.52 50.38 51.65 51.59 52.45 53.01 52.84 53.63 53.68 52.90 55.62 56.00 56.04 57.15 56.90 57.58 57.68 60.13 63.18 64.96 65.83 64.51 64.95 65.83 65.41 66.74 66.40 65.79 64.25 61.07 61.36 60.30 60.85 60.38 60.24 60.61 60.43 61.06 61.62 57.70 55.33 54.30 53.42 51.73
50.98 52.24 53.48 53.60 54.21 54.64 54.87 53.21 54.76 53.52 52.86 54.48 57.45 57.83 57.28 56.87 56.48 60.18 61.93 63.00 63.35 63.28 63.22 63.09 63.53 64.56 63.63 62.74 63.18 61.96 60.47 59.35 59.72 60.15 60.45 60.24 60.53 60.03 61.42 59.43 57.50 56.43 55.22 51.66
51.90 52.71 53.97 55.02 55.14 55.54 55.48 55.83 56.34 57.15 57.60 57.59 57.73 57.68 57.71 57.89 59.50 61.41 61.52 61.41 61.09 60.37 61.24 59.11 60.75 60.43 61.84 62.91 62.49 62.20 61.67 61.14 60.74 59.87 60.05 59.08 59.77 58.89 57.73 56.75 57.67 56.96 56.77 53.39
54.70 55.54 56.13 56.53 56.98 56.42 55.69 57.06 57.81 57.90 58.26 58.20 58.45 58.10 57.70 59.33 59.74 59.73 59.91 59.44 60.29 61.14 62.23 61.56 61.20 58.79 58.22 61.35 62.01 60.89 61.92 61.35 61.16 59.85 59.25 58.32 57.76 58.25 59.47 55.12 57.26 56.86 55.04 53.82
54.36 54.85 55.45 55.03 55.10 56.07 56.97 56.13 55.75 55.16 56.43 57.98 57.43 56.85 56.76 58.11 58.96 58.90 57.87 56.38 57.50 60.18 56.92 57.34 55.89 57.32 56.31 57.45 58.65 60.06 61.83 61.76 61.46 58.87 57.06 57.07 57.25 58.21 57.10 57.73 56.88 55.93 54.57 54.48
53.95 54.10 54.78 55.23 55.04 54.81 55.24 55.04 55.66 55.38 55.68 56.32 56.53 56.78 57.17 57.03 56.71 55.79 56.41 54.27 53.98 53.50 53.79 52.93 52.45 54.28 52.89 57.17 54.88 55.51 57.89 59.62 59.11 59.45 59.01 57.82 55.93 56.90 57.44 56.35 56.76 57.37 55.21 54.74
53.68 52.80 52.77 53.96 55.11 54.88 55.69 55.10 54.93 54.82 54.52 56.06 55.56 55.64 55.32 54.61 55.98 53.68 51.63 53.78 54.60 52.55 52.74 51.98 53.68 53.22 52.99 52.43 52.69 55.10 56.08 56.89 58.27 58.01 57.39 56.93 56.28 56.63 56.31 55.36 55.76 56.40 56.00 55.01
54.14 52.90 52.65 54.18 56.51 55.24 52.39 53.42 54.38 54.59 55.17 55.46 55.15 55.99 55.31 54.80 55.47 55.30 53.69 52.48 52.53 53.80 52.81 53.00 51.68 52.47 51.57 51.97 51.96 52.34 51.76 51.81 51.19 51.05 52.85 51.89 55.50 55.71 56.03 55.92 55.48 55.63 55.12 53.82
53.82 52.31 52.68 51.30 51.77 51.52 52.51 54.05 52.94 53.59 53.26 52.65 53.87 54.47 54.91 55.35 53.93 55.76 56.04 54.64 52.29 52.34 53.82 51.87 51.92 51.93 51.46 52.87 53.86 52.55 51.22 50.45 49.18 49.25 49.44 49.09 48.15 48.18 49.21 50.48 53.84 54.67 55.70 55.86
51.41 52.85 51.27 49.78 49.11 49.49 49.43 50.50 51.58 51.53 52.02 51.56 51.84 52.65 52.70 54.61 54.05 54.00 53.70 52.85 54.99 53.33 53.94 54.34 52.89 53.34 53.12 53.17 54.74 54.68 53.80 53.15 53.45 51.90 50.48 50.90 50.29 50.53 49.65 48.81 48.32 48.34 52.07 56.08
49.79 47.70 48.66 48.07 48.26 48.02 48.49 47.96 47.63 47.76 48.86 48.79 48.52 50.11 51.89 53.50 52.52 51.93 51.45 53.32 53.63 52.21 54.21 54.17 52.05 51.86 52.22 52.13 52.94 53.70 53.82 53.90 49.32 53.16 54.24 53.64 53.29 53.20 53.88 52.86 52.59 52.46 50.59 49.70

GFSNGP_sfc_wetblb_036.txt.gz
Wetbulb
41.99 46.49 47.18 46.59 47.01 47.53 44.29 44.99 42.54 41.55 41.88 44.61 46.48 50.61 55.75 59.24 60.46 61.47 61.55 60.60 62.55 63.24 64.38 66.94 67.72 69.26 69.92 70.68 72.87 73.87 73.95 73.75 73.59 74.23 74.86 74.99 75.13 75.05 74.25 73.53 73.41 71.88 70.74 70.13
42.15 46.30 47.21 46.00 47.62 48.42 47.43 47.17 45.95 43.20 43.28 47.00 49.09 49.80 52.37 57.49 59.89 59.92 58.56 59.92 60.52 62.00 63.96 66.75 67.81 69.05 69.85 70.45 72.45 73.57 73.64 73.94 74.57 74.83 74.83 74.68 75.10 75.42 74.47 73.98 73.68 71.81 70.76 69.99
35.44 44.43 45.45 42.74 46.97 47.47 47.42 47.84 46.65 42.73 45.12 48.37 48.83 52.40 53.86 56.21 57.67 57.37 60.33 60.54 61.29 62.46 64.52 67.21 68.15 69.61 69.66 70.25 71.68 73.18 73.36 74.12 74.36 74.71 74.73 74.78 74.90 75.10 74.68 73.70 74.00 71.66 70.16 70.00
35.36 38.71 36.68 44.93 50.30 50.52 47.35 48.38 49.14 47.78 48.31 50.30 50.54 51.52 53.79 54.31 56.17 57.37 58.43 59.12 60.79 63.47 65.39 67.17 68.16 68.50 70.05 70.58 70.91 71.48 73.05 73.41 74.25 74.54 74.38 74.88 75.05 74.79 74.80 74.19 73.39 72.17 70.37 70.20
34.33 35.25 41.13 46.69 48.72 47.67 46.36 47.04 50.84 50.57 50.46 50.83 51.96 51.80 50.92 55.76 57.88 57.97 58.23 58.64 60.09 63.38 66.49 67.01 67.73 67.96 68.13 68.41 69.73 70.23 70.75 72.38 73.44 74.48 74.03 74.58 74.48 74.63 74.74 74.69 73.60 73.22 71.41 70.59
38.30 34.97 35.58 43.02 50.54 52.65 51.12 43.01 54.25 52.32 51.57 51.76 49.84 48.48 47.96 56.76 56.60 55.99 56.01 57.55 61.34 62.76 65.16 65.76 68.99 69.42 67.87 67.40 68.40 68.89 70.04 70.44 72.94 74.15 74.04 74.26 74.63 74.67 74.93 74.91 73.76 72.71 71.49 71.23
39.58 38.95 40.55 47.99 51.36 51.76 43.27 43.72 56.95 56.87 53.99 52.06 52.48 50.36 56.82 59.98 59.38 58.03 57.20 56.91 57.93 58.41 61.44 67.46 68.96 69.69 68.07 67.98 67.64 69.43 70.53 70.97 71.34 73.41 73.73 74.75 75.03 75.25 74.99 74.39 72.40 71.70 70.48 69.94
41.47 38.72 36.12 52.88 53.49 45.31 49.07 57.28 57.55 57.41 56.29 56.55 57.20 57.95 60.38 61.13 62.17 62.95 63.29 64.29 61.63 57.14 57.38 58.03 66.63 71.39 69.23 68.11 70.13 70.29 69.77 70.38 71.22 72.90 73.76 74.62 75.05 75.15 74.17 73.04 71.20 69.90 67.23 66.26
44.71 45.44 50.61 53.30 51.37 53.54 58.51 57.22 57.98 57.99 57.36 58.11 57.73 59.95 61.88 61.28 62.18 65.63 65.22 64.42 68.96 64.01 64.92 67.45 63.79 70.44 70.24 70.26 70.53 71.46 70.45 71.78 72.04 73.27 74.43 75.28 74.77 73.95 72.86 71.59 69.22 67.59 66.96 66.14
46.62 50.15 50.34 53.49 52.82 54.00 55.66 62.33 63.52 63.50 64.04 64.37 63.60 65.07 65.27 65.56 66.52 68.16 69.02 69.05 69.98 70.02 69.43 69.77 70.37 68.12 70.12 70.81 71.42 72.52 71.94 74.04 74.65 74.57 74.00 74.37 74.16 72.95 71.21 69.53 67.97 67.03 66.10 66.05
46.78 49.89 51.71 53.55 52.50 53.36 60.46 63.72 64.28 64.79 64.94 64.67 64.70 64.25 65.86 66.22 66.96 68.11 68.99 69.58 70.25 70.03 69.51 70.01 70.48 71.08 72.42 73.91 74.40 74.06 73.70 73.56 72.81 71.34 71.25 65.73 60.18 65.17 68.68 64.46 65.94 67.01 66.72 66.13
45.02 49.52 51.82 51.80 53.66 54.82 54.43 56.52 59.25 62.43 62.91 63.45 63.64 63.50 65.13 64.51 65.00 66.20 67.12 68.04 68.61 68.99 69.76 70.01 70.82 70.87 72.08 73.51 73.14 71.91 70.55 68.11 66.01 64.54 62.95 61.28 59.67 55.53 48.85 49.79 51.32 49.32 54.04 60.21
50.74 54.02 53.22 53.20 54.57 55.09 54.44 54.73 55.25 54.78 58.79 59.44 59.64 62.65 63.91 63.33 63.70 63.09 65.64 66.25 66.87 67.12 67.50 68.50 68.34 69.26 69.08 69.96 69.64 69.17 66.73 65.35 63.65 62.71 61.96 60.74 59.69 58.20 55.39 50.43 45.15 45.29 44.87 47.51
54.99 54.99 52.15 53.25 52.01 54.46 55.02 55.93 56.25 56.88 56.69 57.09 57.01 58.08 59.57 60.34 61.67 63.76 64.52 65.17 66.07 65.95 66.28 66.55 67.55 66.94 67.82 67.98 67.50 66.47 65.22 59.84 64.41 63.06 61.73 60.97 59.84 58.64 59.75 58.96 55.66 51.17 45.12 45.24
52.84 53.39 53.34 54.17 53.56 53.71 54.31 55.10 54.47 55.04 56.04 56.05 57.16 57.83 59.34 59.89 60.58 61.76 64.17 65.51 65.98 66.11 65.54 65.10 65.32 66.30 67.80 67.53 66.74 66.11 66.31 65.33 64.86 63.94 63.05 60.82 60.10 58.76 57.72 56.35 53.27 49.65 49.06 46.31
52.71 51.94 52.37 52.03 52.16 53.08 53.46 53.91 53.87 53.96 54.49 56.24 56.07 56.18 57.02 59.47 61.67 62.80 63.87 64.61 63.84 63.50 63.58 63.71 63.82 64.95 66.11 64.75 64.70 66.32 65.07 62.04 64.62 64.07 62.74 61.19 60.17 59.24 56.72 54.10 52.62 52.65 53.00 49.83
50.77 49.13 50.58 51.00 51.15 50.52 51.53 53.56 54.47 53.79 53.67 55.32 55.66 56.93 57.39 58.96 60.61 60.93 61.78 62.85 62.35 61.78 62.84 62.58 61.91 63.61 62.74 62.81 61.84 61.81 62.23 63.48 61.49 63.96 63.04 61.32 59.64 58.61 56.66 54.14 52.31 51.94 52.07 49.99
51.84 52.11 53.04 53.93 54.09 53.95 53.42 53.76 52.95 52.81 53.20 55.88 56.95 55.00 55.94 57.36 57.82 58.59 58.75 58.85 58.51 58.08 58.00 59.99 62.71 62.34 61.87 62.03 61.62 61.45 61.13 60.27 60.00 60.65 61.13 60.89 59.64 59.21 57.16 54.96 54.05 53.72 52.08 49.32
53.32 53.20 53.16 54.71 55.86 55.64 55.84 56.23 56.70 57.01 57.61 57.58 56.78 57.59 59.16 58.67 57.24 56.49 57.49 59.10 58.34 57.47 57.25 57.03 58.71 59.00 59.57 60.62 60.43 60.35 60.99 60.56 60.31 59.71 59.16 57.56 57.72 58.37 57.87 56.86 55.62 54.81 53.76 51.51
53.87 54.53 54.65 55.13 56.64 56.17 56.06 56.98 57.27 56.85 57.69 57.56 57.44 57.52 57.38 57.98 58.52 57.15 56.34 55.99 55.43 53.64 53.74 56.06 55.12 53.97 56.44 59.99 59.34 59.30 59.32 59.46 59.25 59.55 59.07 59.07 58.60 58.37 57.95 55.58 57.42 56.53 54.64 52.67
53.87 54.60 54.61 54.59 54.43 55.34 55.43 54.91 55.13 54.62 55.42 56.86 56.34 55.16 53.70 56.91 57.57 56.66 55.66 54.98 55.24 54.38 54.37 54.47 53.65 53.56 54.30 55.06 57.48 58.66 59.79 60.61 59.38 58.61 58.62 58.19 58.47 58.28 55.96 57.07 57.60 56.92 55.72 54.69
51.43 51.63 53.43 53.45 52.88 52.19 53.28 53.40 53.51 54.27 54.69 53.56 54.35 56.85 55.92 52.76 52.35 52.76 52.94 51.35 52.13 52.48 50.86 49.72 50.64 53.61 52.92 55.72 52.49 55.84 60.36 60.33 60.95 60.56 59.03 57.03 56.20 56.36 55.11 54.88 54.49 54.89 55.41 54.53
50.20 51.23 51.69 52.07 50.89 50.86 50.70 50.70 52.19 53.03 53.14 53.55 54.60 54.26 53.84 53.78 52.31 51.23 50.09 51.54 50.31 51.24 51.15 51.04 52.56 52.54 52.77 53.84 52.73 52.50 59.27 59.47 58.62 58.91 57.55 55.85 55.71 55.19 55.23 54.53 54.76 54.72 54.04 54.88
48.31 47.76 47.50 48.09 48.64 48.20 48.27 50.17 50.23 50.78 51.20 51.84 53.04 53.61 53.86 53.72 52.88 51.07 50.34 50.70 51.11 51.57 52.00 51.94 52.16 51.82 51.22 51.55 51.57 51.77 49.60 49.63 50.30 52.50 53.03 51.68 53.99 53.95 53.90 53.36 53.96 54.17 53.92 53.88
47.32 46.79 46.14 45.17 44.65 44.73 45.92 46.29 49.17 50.08 48.95 49.15 48.86 49.98 51.38 52.65 52.05 52.53 52.39 52.79 51.18 52.01 51.50 50.41 51.51 51.03 51.35 51.78 53.51 52.92 52.18 50.48 48.34 49.02 49.75 49.38 48.47 47.15 51.05 53.05 53.41 53.17 53.24 53.13
44.75 43.68 43.85 42.38 43.51 44.64 45.12 44.56 44.05 45.91 46.56 46.60 48.59 50.85 50.79 50.46 50.26 51.25 51.71 50.42 50.96 51.33 51.14 50.16 50.59 51.01 51.18 51.78 51.90 51.94 51.68 51.24 51.57 50.84 50.84 51.41 52.11 51.73 51.37 49.98 49.55 48.06 47.69 47.08
44.52 43.51 43.67 44.02 45.01 43.73 43.97 44.43 44.47 43.53 44.13 45.62 46.18 46.49 47.06 47.58 47.67 47.91 47.71 48.55 48.90 50.36 49.36 47.66 47.86 47.44 49.21 50.42 51.11 50.86 51.07 50.30 47.97 51.64 51.27 50.96 50.79 50.06 49.83 49.63 48.75 48.08 47.25 46.76

GFSNGP_sfc_wetblb_042.txt.gz
Wetbulb
36.39 39.68 41.06 40.97 41.61 42.85 42.27 43.05 39.58 42.00 41.77 44.00 46.31 48.15 50.48 50.67 55.10 57.78 58.61 59.54 60.15 62.28 62.61 62.89 63.91 65.39 66.80 67.84 69.08 70.06 69.71 69.91 70.32 70.88 71.05 71.33 71.40 72.04 72.54 72.93 72.31 71.28 70.39 70.26
34.65 40.88 41.54 40.08 42.48 43.42 43.44 43.58 43.93 43.08 42.13 46.45 48.46 48.08 49.43 51.27 53.38 56.16 57.84 59.61 60.28 62.00 62.86 62.84 63.40 64.93 66.74 67.52 68.84 69.92 69.76 69.44 70.54 71.02 71.20 71.01 70.96 71.08 71.40 72.24 72.83 72.30 71.53 70.74
30.22 37.87 38.07 36.14 41.65 43.47 43.48 44.30 44.68 41.71 44.87 46.99 46.43 46.88 48.46 50.42 50.61 53.68 57.32 59.18 59.66 60.78 62.18 63.51 63.44 64.99 66.27 67.35 69.30 69.46 69.73 69.99 70.38 70.86 70.95 71.18 71.43 71.17 70.50 70.53 71.80 72.20 71.94 71.57
30.60 33.53 29.23 39.47 45.62 47.00 45.47 46.04 45.83 45.65 47.51 49.15 49.39 50.39 50.50 51.08 52.22 50.92 54.26 58.59 60.02 60.98 61.83 63.23 64.94 64.87 66.47 67.79 68.51 69.59 69.73 69.93 70.58 70.93 70.86 71.47 71.69 71.43 71.18 71.25 70.73 71.01 71.52 71.81
30.22 29.89 36.93 41.27 47.39 48.08 44.96 43.76 48.06 46.13 47.70 48.90 50.45 50.10 48.81 50.77 50.78 52.23 53.38 57.03 60.49 62.21 62.40 63.13 63.37 65.72 65.94 66.68 67.73 69.18 69.76 70.19 70.81 71.33 70.96 71.32 71.42 71.83 72.21 72.06 71.71 71.39 71.81 71.69
30.67 29.74 29.10 39.78 49.64 53.46 52.02 40.78 49.52 50.02 49.58 49.25 47.80 43.77 48.91 51.68 53.03 53.46 54.90 56.52 57.69 59.50 60.82 60.67 61.24 62.73 64.90 66.27 67.01 67.60 69.92 70.74 71.58 71.92 71.84 71.42 71.76 72.18 72.93 73.16 72.93 73.03 72.29 72.16
30.88 31.63 36.02 45.59 51.41 53.11 40.66 42.70 51.06 52.47 51.88 51.24 46.98 50.79 52.67 53.15 52.74 54.56 55.35 55.81 56.75 58.28 61.07 62.52 62.78 64.46 64.99 66.12 66.58 68.22 69.84 71.43 71.85 72.48 72.51 72.54 72.68 72.98 73.05 73.22 73.59 73.44 73.03 73.06
30.02 31.25 30.46 50.26 50.75 46.32 47.67 52.01 53.63 54.84 54.96 53.12 54.70 51.43 51.73 54.13 54.78 55.27 55.38 56.75 57.01 58.41 58.98 61.13 64.30 65.47 65.24 65.83 67.83 69.30 69.65 70.81 71.35 72.41 73.15 73.29 73.12 73.19 73.46 73.28 73.03 73.18 72.75 72.03
34.62 34.93 44.52 50.81 50.28 52.51 52.59 53.42 54.00 54.45 56.02 59.39 59.51 52.24 53.85 57.19 59.67 61.20 64.90 65.18 58.80 54.90 62.12 65.70 64.22 65.54 64.03 64.95 66.99 67.39 68.58 69.33 71.43 72.83 73.01 73.46 73.29 73.22 73.14 73.55 72.91 72.61 72.40 71.41
39.80 43.77 48.70 51.52 52.99 53.35 54.73 54.76 55.37 56.66 60.45 62.09 56.57 60.08 63.37 64.67 66.07 67.87 68.14 68.35 69.16 69.07 68.35 68.35 70.20 68.61 67.29 67.65 67.91 66.45 66.43 67.23 68.16 69.02 70.82 72.73 73.77 73.97 73.62 73.28 73.16 72.70 71.73 70.85
39.94 41.99 48.54 52.53 52.97 53.72 55.16 56.32 56.15 57.61 60.65 64.32 64.79 65.15 65.94 65.79 66.30 66.75 67.56 67.81 68.34 68.45 68.75 68.64 69.76 70.67 71.96 71.36 69.13 67.84 66.88 66.52 68.12 68.17 61.96 59.47 57.30 59.92 63.38 59.90 68.21 67.87 67.89 67.42
34.65 43.18 44.14 49.14 52.75 55.08 54.81 54.95 56.36 57.30 61.10 61.93 63.56 63.61 65.03 64.77 65.19 65.25 65.27 67.06 67.11 67.47 67.94 68.53 68.80 69.25 70.47 71.78 71.37 70.69 69.07 68.28 65.40 62.56 62.08 63.33 61.35 59.01 50.15 52.14 50.87 51.05 53.23 59.23
41.47 50.01 50.70 52.26 54.25 55.22 54.93 55.53 56.73 57.59 58.97 61.00 62.03 63.61 63.74 63.08 63.12 61.68 63.74 64.63 64.45 65.35 65.12 65.02 66.05 67.62 68.48 68.32 68.26 66.85 64.77 63.71 63.05 62.67 64.43 64.23 64.01 61.67 58.99 55.93 49.97 51.24 51.60 52.69
46.53 50.45 51.13 52.50 51.59 54.52 55.32 56.26 56.92 58.66 59.69 59.76 61.46 63.71 63.55 62.13 62.79 62.83 62.49 62.47 63.95 64.89 65.40 65.27 65.08 65.69 67.22 67.29 66.36 65.16 63.49 57.58 64.23 64.61 64.07 63.46 62.34 62.16 61.97 60.71 59.19 57.02 47.79 53.59
51.23 53.03 52.29 54.29 54.05 54.66 55.26 55.91 54.97 55.18 57.56 59.42 60.36 61.31 62.43 61.74 61.52 62.01 62.65 62.16 62.28 62.34 61.87 62.98 63.38 64.08 66.72 66.46 66.28 65.14 64.69 64.19 64.17 64.41 64.44 62.29 62.89 63.10 62.97 62.22 60.29 54.00 51.30 48.50
52.46 53.25 53.19 52.72 53.67 54.24 54.38 53.97 53.53 54.38 55.86 58.74 59.47 60.67 61.13 61.03 60.50 60.46 61.16 62.04 61.09 59.95 60.16 60.54 60.81 61.77 64.80 65.90 65.76 65.28 64.82 60.40 61.60 62.70 61.79 61.35 61.24 60.47 58.85 57.90 56.27 56.92 56.09 51.88
50.30 49.30 50.82 50.29 50.31 51.16 51.96 53.69 55.00 54.62 55.42 56.40 58.89 59.98 59.64 58.78 58.14 57.81 58.07 58.82 59.40 59.05 59.61 59.45 59.58 61.52 62.38 63.58 64.70 63.73 63.06 62.43 60.29 62.33 61.78 61.30 60.42 59.44 58.52 59.40 59.10 58.60 55.89 54.63
53.00 52.87 53.50 52.28 52.47 53.12 53.68 54.34 55.24 56.10 56.50 57.82 57.85 58.42 57.91 57.20 56.71 56.57 56.87 57.49 56.71 56.15 56.49 57.57 59.80 61.16 61.48 61.93 62.44 63.09 63.22 63.06 62.39 61.19 61.32 60.40 59.40 58.98 58.60 58.58 58.42 56.47 53.60 52.40
55.16 55.14 55.62 55.48 55.50 55.22 55.00 55.30 55.62 55.98 56.63 56.56 56.54 56.02 56.35 56.12 55.66 55.72 55.87 54.82 54.72 53.31 53.89 55.31 58.51 59.17 59.76 61.25 61.11 61.76 61.76 61.87 61.68 61.45 60.95 57.16 58.20 57.23 56.53 57.03 56.91 56.56 54.89 53.40
53.61 54.75 54.51 54.26 54.91 55.16 54.80 56.15 56.54 56.19 56.78 57.07 56.70 56.11 55.42 55.92 54.75 51.49 51.03 50.26 50.93 51.89 52.66 53.28 53.64 54.42 57.11 60.01 59.48 60.98 61.18 60.96 60.63 60.53 60.54 60.25 59.35 57.40 56.39 53.12 56.17 55.66 54.77 54.16
49.23 49.85 50.43 50.96 52.08 52.97 53.57 55.40 55.74 55.32 55.34 55.11 54.02 52.50 51.46 51.55 51.85 52.47 50.81 49.72 51.32 52.12 52.81 53.59 53.37 53.78 53.97 56.25 59.98 59.97 59.11 59.50 59.99 60.42 60.29 59.84 59.58 58.85 57.94 57.26 56.79 55.98 54.63 53.71
46.20 47.23 48.30 48.72 48.28 47.74 49.19 50.33 53.89 54.28 53.84 53.53 53.22 52.57 50.82 49.09 49.32 49.54 49.96 49.45 50.58 50.43 52.02 52.15 52.62 54.07 52.84 54.55 57.97 59.72 59.80 58.60 59.52 60.20 59.97 59.59 58.90 58.02 56.91 57.48 57.41 56.04 55.68 55.52
44.68 44.92 45.17 45.08 45.37 45.58 46.36 48.28 49.48 49.36 48.70 48.34 48.48 50.50 50.18 49.99 49.66 48.93 48.74 50.05 51.27 50.63 52.14 52.23 52.10 52.45 52.74 52.48 52.23 53.16 55.83 57.24 59.32 59.25 59.70 59.97 58.91 58.62 58.36 57.06 56.76 57.06 56.88 56.43
43.29 43.95 44.21 45.54 45.69 45.20 44.65 45.54 46.09 46.07 46.02 45.80 45.88 46.67 47.91 49.09 48.20 49.77 49.33 48.74 48.56 49.08 48.80 50.11 50.66 50.93 51.96 53.09 53.13 52.33 52.26 52.78 53.20 53.02 53.78 50.69 56.11 55.80 56.17 56.76 56.21 56.44 56.66 55.58
42.58 42.73 42.44 42.49 42.11 42.47 43.23 44.22 44.17 44.34 44.41 44.10 44.67 45.78 46.12 47.01 45.12 45.01 45.41 45.18 44.93 45.06 44.99 46.03 47.20 49.19 50.75 51.29 52.06 52.24 51.37 50.19 49.68 50.33 51.00 50.40 50.54 50.72 49.94 48.65 48.06 48.20 48.84 48.84
41.04 41.42 42.40 42.33 41.89 42.02 42.09 42.51 41.50 41.94 42.79 42.27 42.81 43.82 44.43 44.52 44.45 44.33 44.21 44.29 43.91 44.10 44.00 44.57 45.17 45.52 46.54 48.70 50.26 50.92 50.92 50.56 50.10 48.72 48.03 46.92 46.14 46.04 45.27 46.07 45.43 44.66 45.36 45.39
39.26 39.77 40.27 40.54 41.34 42.15 41.77 40.95 40.06 39.35 40.31 41.57 40.81 42.20 42.96 42.94 42.67 42.42 42.43 42.34 42.47 42.43 43.28 43.73 45.34 45.44 46.14 46.62 46.97 47.39 48.52 49.20 45.66 48.49 47.79 47.07 46.51 45.75 45.32 44.76 44.32 44.00 43.51 43.31

GFSNGP_sfc_wetblb_045.txt.gz
Wetbulb
42.13 42.99 43.94 44.01 44.35 45.80 45.91 48.23 46.30 47.97 48.97 51.25 53.22 55.53 58.03 59.29 59.86 60.03 61.88 64.17 66.09 67.46 68.98 69.68 70.39 70.83 71.17 71.55 72.85 73.26 73.25 73.13 73.31 74.72 75.33 75.50 75.48 75.79 76.01 76.19 75.83 76.16 75.70 75.80
39.03 42.71 43.59 42.74 45.08 45.87 46.09 46.77 47.02 47.85 48.27 54.33 55.99 57.23 57.57 58.77 59.57 60.41 61.20 63.39 66.29 67.87 69.10 69.99 69.97 70.27 70.62 71.33 71.98 73.10 73.21 72.98 73.92 74.65 75.11 75.03 75.38 75.62 75.82 75.97 76.00 76.12 75.50 75.37
35.87 41.25 42.07 39.91 44.47 46.04 46.99 48.54 48.33 45.71 50.43 54.01 53.79 54.69 57.59 59.03 60.31 60.42 61.64 64.27 66.21 67.64 69.28 70.52 69.85 70.48 70.45 71.21 72.74 72.94 73.07 73.48 74.14 74.70 74.57 74.88 75.33 75.57 75.24 75.46 76.41 75.81 75.79 75.37
36.15 39.21 32.78 45.06 49.74 51.04 48.59 49.21 50.39 50.35 51.48 53.24 54.65 57.40 58.82 60.74 60.60 61.21 62.32 62.79 64.47 65.43 67.77 69.77 70.02 69.49 71.29 71.82 72.42 72.93 73.14 73.72 74.41 74.72 74.19 74.84 74.97 74.70 75.01 75.30 75.34 75.84 75.75 75.92
34.04 35.96 40.39 43.04 46.96 50.86 49.82 49.52 54.39 52.19 52.93 53.66 55.19 56.11 58.11 59.63 60.34 61.82 63.19 64.64 64.25 64.17 66.07 70.41 70.67 71.27 71.29 71.80 72.19 72.85 72.82 73.60 74.12 74.27 74.45 74.82 74.48 74.26 74.80 74.79 74.73 74.96 76.00 76.14
36.12 32.35 32.17 43.92 48.95 53.08 54.21 45.29 54.51 55.54 55.48 55.44 56.69 51.06 54.40 61.50 60.28 60.29 61.38 62.50 63.17 64.85 65.81 67.32 69.89 69.91 70.85 71.30 71.95 72.16 73.03 73.45 74.47 74.68 74.62 74.49 74.76 74.73 75.58 75.29 74.83 74.32 75.09 76.00
33.40 33.22 38.89 46.77 51.52 55.90 46.13 47.76 56.49 57.30 58.01 57.84 56.23 56.75 61.37 61.18 60.90 62.09 63.34 63.68 64.63 64.71 66.04 69.06 69.20 70.89 70.92 71.55 71.33 72.58 74.13 74.80 75.19 75.43 75.19 74.94 75.60 75.90 75.98 75.49 75.41 75.55 75.14 75.53
34.04 31.93 29.93 47.72 52.27 48.24 53.57 56.33 57.34 58.55 59.27 58.26 59.42 61.11 62.07 62.75 62.69 60.72 62.75 62.78 62.71 64.31 65.58 67.20 69.26 70.27 70.77 71.56 73.06 74.64 74.88 74.20 75.27 75.85 74.83 74.79 75.51 74.05 75.83 74.38 72.32 75.55 75.82 74.58
37.62 37.62 45.71 48.74 49.99 55.58 56.95 56.05 57.20 58.50 60.32 60.69 59.55 61.11 63.66 64.14 63.16 63.58 68.40 67.61 62.98 64.77 67.84 69.17 70.35 70.54 71.53 73.50 73.39 73.42 73.45 74.21 74.97 75.40 75.39 76.31 75.84 75.32 74.15 74.69 72.74 73.31 73.85 73.85
40.58 43.65 46.35 48.39 51.65 53.58 57.11 56.97 58.62 60.44 60.93 60.75 60.16 63.12 65.14 64.64 65.45 69.97 71.00 69.36 68.99 71.70 70.84 70.76 71.80 71.94 72.27 72.43 73.94 74.62 73.93 74.41 74.84 74.52 74.80 75.71 75.49 75.36 74.53 74.49 74.73 73.99 74.03 73.18
39.60 41.95 43.99 47.81 50.39 53.72 56.67 58.27 59.41 61.48 59.98 59.43 63.66 65.87 63.80 66.75 69.30 68.86 68.66 69.38 70.57 70.75 70.79 71.59 73.26 74.05 74.83 73.21 73.56 72.57 72.98 73.12 73.31 73.81 73.41 70.60 66.28 68.86 75.98 77.07 73.32 75.32 74.76 72.46
36.76 44.46 45.32 46.65 50.07 53.75 54.76 57.47 59.87 59.82 58.01 60.98 65.70 65.87 67.10 67.25 68.04 68.27 68.07 69.08 69.04 69.33 69.32 70.35 72.51 73.35 72.61 74.48 74.51 73.32 71.87 70.79 67.69 66.78 67.02 65.15 63.40 60.67 50.69 51.60 52.14 52.14 52.51 60.17
42.67 46.38 46.53 48.56 48.82 49.62 50.71 57.61 58.84 57.80 59.46 61.14 65.28 64.91 63.71 63.73 64.79 62.34 65.30 65.55 66.04 66.26 67.27 69.17 70.69 69.85 70.85 71.45 71.19 69.67 68.17 66.25 65.31 65.94 65.35 64.14 65.15 63.78 60.78 57.14 48.52 48.70 50.87 50.87
46.63 45.15 43.43 45.80 45.63 50.09 56.58 58.92 57.35 58.51 61.71 61.93 63.24 63.94 63.74 63.23 63.18 62.75 63.41 64.73 65.00 65.26 65.55 66.35 67.00 67.27 68.86 70.42 69.22 69.31 67.45 58.85 67.22 67.56 67.13 66.57 66.59 65.99 65.39 62.11 59.91 59.25 51.74 47.97
43.86 45.08 46.54 47.63 51.25 53.19 58.17 56.85 56.53 57.95 61.38 61.33 62.41 62.12 61.96 61.25 60.73 61.23 62.99 65.93 66.46 65.14 64.18 64.50 65.19 66.71 67.41 68.11 67.75 67.56 67.51 67.00 67.13 66.86 66.15 63.84 63.66 62.62 62.99 63.67 64.89 60.52 57.10 52.65
47.11 50.52 48.42 46.93 51.58 55.12 55.34 55.00 56.95 59.19 60.42 61.89 62.56 61.39 61.07 61.02 60.99 60.96 61.87 63.21 62.59 62.68 63.75 63.76 64.20 65.32 66.55 66.76 66.69 65.92 64.05 60.13 62.68 64.86 65.43 66.28 66.26 65.90 64.08 62.47 61.41 58.61 58.10 54.58
46.80 50.18 51.36 52.61 53.04 54.20 54.15 54.98 57.41 60.40 60.96 60.40 60.80 62.14 62.05 61.12 60.36 60.28 59.58 60.23 60.44 60.74 62.93 64.62 65.35 67.93 66.97 66.36 65.88 64.51 64.25 64.37 61.24 64.61 65.13 65.79 65.49 65.02 63.45 62.44 60.80 59.12 57.52 55.05
52.76 54.34 53.96 53.77 54.06 54.69 54.99 56.01 59.12 58.55 57.90 58.47 58.96 59.92 58.06 56.29 56.21 56.19 56.86 58.80 58.48 57.00 58.44 61.68 64.35 66.55 67.51 67.79 67.23 65.90 64.45 64.00 64.13 64.41 64.11 64.12 63.45 62.99 62.44 61.55 60.59 58.09 55.55 55.17
54.57 54.54 55.26 55.64 56.02 56.30 56.28 57.16 58.11 58.75 58.62 58.12 56.02 54.91 53.65 52.38 52.23 52.82 54.50 54.38 54.01 54.26 55.67 58.14 58.29 63.15 64.81 63.14 66.18 67.38 66.66 65.59 65.11 64.49 63.33 59.71 63.53 63.97 62.34 62.13 60.73 59.69 57.56 58.69
49.96 50.61 51.62 52.32 55.44 56.00 55.56 55.54 55.32 56.05 57.49 55.92 53.08 52.32 51.97 52.56 53.91 53.80 54.55 53.29 54.22 54.14 57.21 57.69 59.48 59.25 61.42 63.04 63.15 66.27 66.53 66.24 65.93 65.07 64.60 64.15 63.54 63.16 61.94 56.30 60.49 60.42 61.28 61.16
46.10 47.93 48.16 49.02 49.78 52.11 53.33 53.56 52.72 51.63 52.03 52.05 51.98 51.75 52.53 52.47 52.61 54.79 53.78 52.51 53.79 55.22 55.30 55.74 56.79 58.29 58.44 61.45 62.36 63.25 64.06 64.44 64.73 64.27 63.94 63.22 62.87 62.19 61.63 62.85 61.82 60.75 61.03 60.76
46.19 45.61 47.01 47.28 47.05 47.16 48.79 48.78 48.54 48.47 49.48 51.32 51.52 51.61 51.78 52.29 52.34 51.29 50.81 50.48 51.85 51.38 52.83 54.49 55.36 54.71 56.94 58.43 62.21 63.02 62.38 62.78 62.58 61.92 62.60 61.91 60.91 59.15 58.53 58.77 59.22 59.88 60.15 57.87
46.41 45.57 45.38 47.07 46.77 46.25 46.72 46.86 47.01 47.39 47.38 49.02 51.95 51.82 50.89 50.67 51.88 51.62 48.71 50.42 50.30 49.99 52.06 51.79 52.01 53.14 53.94 56.42 56.56 56.32 55.47 55.45 57.23 59.70 60.70 61.29 62.05 61.79 59.84 57.96 57.58 57.60 56.98 56.46
45.57 46.59 46.84 46.72 45.20 44.16 43.00 44.47 44.96 45.17 47.12 47.87 48.00 48.44 51.60 50.32 48.68 49.51 49.00 47.73 47.67 50.22 50.00 50.98 51.82 51.95 53.40 55.62 54.80 53.80 52.74 54.67 54.33 55.66 56.57 51.48 56.61 55.99 54.70 52.03 51.97 52.72 54.70 55.63
44.67 45.16 44.93 45.26 44.74 44.81 45.32 45.52 45.20 45.73 45.51 44.75 44.24 44.66 45.51 46.49 45.18 44.67 48.12 48.63 46.33 49.20 50.51 48.69 49.24 50.24 54.26 54.92 54.66 53.25 52.44 50.50 49.31 50.82 52.32 52.26 50.40 48.37 48.09 47.71 48.28 50.76 50.92 50.71
42.47 42.96 43.66 44.49 44.99 45.32 45.46 45.40 43.57 44.52 45.36 44.88 45.15 46.07 46.35 46.79 46.23 47.50 46.10 45.92 46.41 46.41 47.70 48.32 49.03 50.31 50.80 51.23 52.08 52.45 52.01 51.75 52.28 52.28 51.20 50.25 48.11 47.19 45.99 44.98 45.40 46.08 46.58 47.81
42.84 41.24 44.16 43.75 43.54 43.59 43.54 43.13 42.50 42.18 43.70 44.29 43.35 44.54 45.29 45.87 45.25 44.85 44.32 45.11 45.11 45.18 45.69 46.27 46.70 46.93 48.05 48.62 49.08 49.61 50.45 51.14 47.26 51.24 51.37 51.95 52.17 51.79 51.57 50.96 50.26 49.55 47.96 46.08

GFSNGP_sfc_wetblb_048.txt.gz
Wetbulb
50.41 48.13 48.08 50.39 50.19 50.58 50.22 51.09 48.79 51.16 51.75 54.46 55.80 56.90 58.45 59.89 60.31 61.22 62.64 64.14 66.19 68.39 69.48 71.42 72.37 75.46 76.49 75.77 76.35 75.94 76.69 76.69 76.93 78.22 79.08 79.26 79.16 79.48 79.67 79.86 79.74 80.01 79.79 80.11
45.48 47.62 47.33 46.39 49.13 50.08 50.85 51.55 51.81 52.14 52.31 57.18 58.20 58.96 58.90 59.36 59.61 59.97 60.80 61.91 63.84 67.54 69.23 71.48 72.49 73.33 74.90 75.60 75.48 76.49 77.21 76.61 77.68 78.31 78.99 78.84 79.01 79.23 79.63 79.60 79.80 79.72 79.51 79.61
42.76 47.55 46.99 44.13 48.41 49.71 50.71 52.36 52.33 49.88 54.04 57.03 56.84 57.40 58.30 59.63 60.34 60.61 61.51 62.78 64.21 66.78 69.30 71.21 73.00 73.70 74.34 75.68 75.52 76.27 76.77 77.50 77.92 78.39 78.44 78.84 78.71 78.90 79.06 78.98 79.09 79.24 79.24 79.23
42.18 45.21 37.38 48.98 54.05 52.94 51.29 52.41 53.61 53.83 55.02 56.39 57.35 58.77 59.64 61.03 60.85 61.01 61.66 62.69 64.79 65.08 66.58 70.46 71.64 71.80 74.34 74.42 76.02 76.18 76.53 77.01 78.03 78.31 78.24 78.67 78.82 78.56 78.99 78.98 78.67 79.04 79.12 79.18
38.96 40.53 45.38 48.18 49.48 49.43 50.12 51.30 54.95 54.29 55.60 56.54 57.31 57.79 58.12 60.04 61.50 62.30 63.36 64.02 64.94 65.07 64.91 66.86 68.67 71.19 73.38 73.82 74.29 74.93 76.13 76.52 77.46 78.07 78.07 78.42 78.13 78.18 78.95 78.12 78.03 77.81 78.26 79.18
40.89 37.41 37.35 47.27 51.71 53.58 53.97 47.12 55.58 57.56 57.49 58.00 58.24 53.17 56.24 60.97 61.62 62.89 63.52 64.09 64.07 65.10 65.40 65.92 67.84 69.69 72.26 73.36 74.88 75.53 76.16 76.83 77.97 78.48 78.28 78.06 78.31 78.30 78.70 78.39 76.88 76.86 76.87 78.38
38.08 37.68 42.76 49.49 52.69 56.58 45.96 51.34 59.21 60.13 60.94 61.53 60.12 61.34 63.82 65.22 65.51 66.65 66.64 65.99 66.40 66.76 66.64 69.34 69.61 71.86 74.32 73.58 73.98 76.19 76.04 76.13 77.88 78.96 78.89 79.03 79.29 78.87 78.45 77.64 77.68 77.44 76.88 78.35
37.81 36.59 34.95 49.08 49.33 48.81 54.09 57.65 58.92 59.55 60.20 60.61 62.62 64.03 65.24 66.36 66.58 66.86 66.76 67.50 66.45 66.88 67.18 69.05 71.73 72.86 76.11 75.47 76.60 77.75 77.84 76.29 78.07 78.94 77.05 76.53 78.62 77.47 78.03 77.97 77.17 76.92 76.59 73.72
40.71 40.41 48.20 50.30 50.65 53.08 54.29 54.13 56.06 58.30 59.62 60.38 60.76 62.47 64.32 66.45 68.12 68.23 68.59 68.44 67.45 68.75 68.53 70.66 72.27 73.90 74.14 77.35 77.94 77.01 76.93 77.69 78.35 78.58 77.09 78.26 78.14 77.53 76.04 77.01 75.54 75.25 74.71 74.26
42.69 45.75 47.47 49.60 51.56 53.35 54.44 54.53 56.21 58.80 59.88 60.18 60.28 62.05 63.93 67.30 68.88 69.14 69.94 68.48 70.38 69.01 69.25 71.83 73.98 74.71 74.94 75.37 76.98 76.80 76.41 76.41 76.81 77.06 77.05 77.09 76.69 76.51 75.85 75.56 75.27 74.74 74.30 73.52
42.95 46.08 47.50 49.19 50.93 51.74 52.72 56.05 56.50 58.52 59.97 60.82 61.47 62.59 64.27 67.47 69.77 69.89 69.89 73.13 72.37 72.44 73.42 73.99 75.06 75.49 75.47 75.56 75.91 74.77 75.48 75.84 76.06 76.42 76.26 76.72 74.85 73.70 76.63 78.29 73.67 76.00 76.16 75.95
39.65 46.68 47.08 48.11 51.12 53.15 52.26 52.38 53.66 54.75 57.42 60.82 62.95 62.99 63.60 68.23 70.91 70.57 70.15 71.74 72.67 72.61 74.63 76.29 75.29 73.57 76.60 76.22 76.11 75.96 75.42 75.44 75.26 75.95 75.97 76.09 73.56 68.98 50.82 48.71 47.54 47.97 52.87 67.49
45.08 48.56 49.16 50.26 51.85 52.47 51.45 52.33 53.64 54.86 57.54 60.12 61.12 61.67 66.52 65.77 65.48 63.19 67.06 67.40 68.33 69.25 70.05 71.24 71.43 71.44 72.70 74.89 76.74 75.97 74.80 73.83 73.04 71.15 72.00 72.31 73.01 73.66 69.51 58.12 49.24 46.16 45.07 46.89
48.02 48.05 46.26 48.83 47.99 51.67 52.31 52.52 53.35 57.44 60.53 60.59 61.21 63.65 64.44 63.27 64.02 65.54 65.48 66.29 67.56 68.03 68.68 70.54 71.45 70.61 71.36 71.97 72.61 72.41 71.19 60.86 72.22 70.85 72.25 72.94 73.00 72.29 70.21 68.54 66.55 64.72 50.47 49.39
45.26 46.04 45.27 47.04 48.23 49.16 51.39 52.97 53.03 55.74 60.29 59.33 62.17 63.12 63.43 62.64 62.73 63.91 65.75 66.58 65.56 65.45 65.84 67.05 67.79 67.50 70.42 71.91 71.28 70.62 69.79 69.78 69.80 69.75 70.34 67.99 70.25 69.69 68.35 66.60 65.57 63.32 61.86 54.93
44.57 45.41 45.14 44.57 46.03 49.36 51.32 51.79 56.36 58.67 58.39 58.05 62.34 61.70 62.44 63.64 63.61 63.96 64.08 63.99 63.78 64.15 64.93 65.32 65.93 67.24 68.41 68.22 68.54 68.38 67.33 61.89 65.93 67.88 66.13 65.17 65.66 65.87 65.55 65.84 65.43 63.72 63.67 65.13
43.59 43.54 46.94 48.36 48.65 48.83 50.93 56.17 56.93 57.00 58.69 59.69 62.41 62.79 64.63 64.74 64.36 63.82 64.15 64.42 64.24 64.52 65.26 66.34 67.01 68.34 69.13 70.03 69.22 68.46 67.80 66.43 63.64 67.92 67.05 66.47 66.26 65.69 66.26 67.62 68.68 65.92 64.63 60.07
52.72 52.84 55.37 53.18 52.34 52.45 55.10 56.57 57.61 57.69 57.50 60.02 61.40 60.56 60.53 61.00 60.42 60.92 61.04 61.58 61.37 60.92 62.27 65.04 67.84 68.91 69.79 69.52 68.95 68.52 68.33 67.75 68.04 68.03 68.25 67.67 67.15 67.23 66.45 65.38 63.38 62.27 60.66 56.00
50.85 53.19 54.76 53.66 53.14 55.84 56.73 57.03 56.91 54.50 54.96 55.56 54.92 55.15 57.10 57.60 57.58 57.70 58.18 58.00 57.77 58.19 59.20 62.35 60.94 65.86 67.63 65.31 67.45 68.84 68.52 68.26 67.88 67.48 66.99 62.24 66.02 65.25 63.73 63.56 63.54 64.43 62.65 60.63
49.08 50.06 49.61 49.53 50.19 50.98 51.52 54.61 54.79 53.81 53.38 53.37 52.98 53.46 55.49 56.13 56.54 56.38 56.81 55.09 55.49 55.99 58.07 58.55 61.80 63.17 64.64 66.12 64.90 68.47 68.13 67.73 67.55 67.41 67.32 67.06 65.96 65.75 64.57 58.28 62.43 61.70 61.18 62.28
46.69 47.85 48.34 47.79 46.82 47.87 48.68 49.45 50.96 52.55 54.62 53.61 51.81 51.49 50.82 50.39 50.33 52.80 54.02 52.35 53.63 57.14 57.77 57.61 59.78 62.62 63.86 63.86 64.90 66.35 66.93 66.84 65.62 64.59 64.04 64.06 64.45 64.67 64.70 62.23 61.34 62.25 62.96 63.84
47.07 46.00 46.41 47.43 46.75 45.99 46.57 47.79 48.65 48.96 50.75 51.05 51.99 52.28 53.18 51.76 50.80 51.35 52.39 52.89 54.25 52.30 57.06 57.80 58.02 56.87 60.30 60.55 63.52 64.24 64.56 64.27 64.58 63.77 63.77 63.51 63.18 61.95 61.38 62.58 62.80 61.34 62.40 63.08
48.85 48.48 47.13 46.23 46.69 46.46 46.77 46.46 46.06 47.08 46.80 47.68 50.71 50.22 49.07 49.69 51.10 48.59 46.66 50.78 52.36 51.88 56.05 56.29 53.41 53.44 54.79 59.31 60.00 60.12 59.52 59.75 60.22 60.51 60.61 60.13 58.88 58.32 57.76 55.70 55.23 57.79 58.36 60.36
48.38 49.50 49.07 48.78 48.35 47.58 46.09 47.23 47.29 46.11 45.92 46.88 47.52 48.12 50.10 49.58 49.92 50.93 51.75 50.20 49.33 50.91 51.24 51.54 52.23 52.19 53.92 56.74 56.00 54.75 55.83 56.31 52.86 52.85 52.73 49.18 57.59 57.38 59.13 55.82 51.53 51.48 51.38 51.13
48.39 48.78 48.29 47.84 47.51 46.53 46.64 47.97 48.19 48.60 48.45 46.60 47.40 47.86 49.17 47.95 46.68 47.22 50.05 50.70 48.22 51.02 51.73 49.58 50.01 51.00 55.72 56.39 56.08 55.82 55.35 52.43 50.63 51.01 51.14 52.96 54.12 53.15 53.45 52.59 56.28 54.37 50.86 50.26
46.23 46.60 47.28 48.01 47.71 47.61 47.08 46.45 45.54 46.12 47.04 46.19 47.31 47.95 47.81 47.75 48.79 49.17 49.05 48.75 50.25 49.29 50.59 50.55 50.85 52.33 51.81 52.04 52.93 53.49 53.46 53.68 54.80 54.64 52.98 53.44 53.31 52.20 50.72 50.61 50.08 49.15 52.41 52.60
46.68 44.18 46.37 45.40 46.08 46.90 46.91 45.64 44.80 43.28 45.13 45.95 45.53 46.63 47.29 47.97 47.63 47.73 46.31 48.46 48.65 48.73 49.16 49.13 49.14 49.24 50.74 50.62 50.14 50.72 51.32 50.77 46.53 52.80 53.81 54.20 53.96 54.01 54.54 54.29 52.58 49.90 48.75 47.93